<?xml version="1.0" encoding="UTF-8" standalone="yes"?>
<gpx
 xmlns="http://www.topografix.com/GPX/1/1"
 creator="OziExplorer Version 3956f - http://www.oziexplorer.com"
 version="1.1"
 xmlns:xsi="http://www.w3.org/2001/XMLSchema-instance"
 xsi:schemaLocation="http://www.topografix.com/GPX/1/1 http://www.topografix.com/GPX/1/1/gpx.xsd">
<metadata>
 <time>2025-10-14T17:39:04Z</time>
 <bounds minlat="31.742440" minlon="35.080730" maxlat="31.784260" maxlon="35.131680"/>
</metadata>
<wpt lat="31.7740045" lon="35.1247707">
 <time>2025-10-14T17:38:22.260Z</time>
 <name>StFin</name>
 <sym>Flag, Red</sym>
</wpt>
<trk>
 <name>Sataf - Refaim - HaTayasim, 29km.,630m</name>
 <desc>Sataf - Refaim - HaTayasim, 29km.,630m</desc>
<trkseg>
<trkpt lat="31.7751100" lon="35.1254200">
<ele>697.570007</ele>
<time>2025-10-14T20:39:04.341Z</time>
</trkpt>
<trkpt lat="31.7757300" lon="35.1258200">
<ele>691.130005</ele>
<time>2025-10-14T20:39:04.341Z</time>
</trkpt>
<trkpt lat="31.7756400" lon="35.1259900">
<ele>693.039978</ele>
<time>2025-10-14T20:39:04.341Z</time>
</trkpt>
<trkpt lat="31.7755300" lon="35.1265000">
<ele>696.010010</ele>
<time>2025-10-14T20:39:04.341Z</time>
</trkpt>
<trkpt lat="31.7755700" lon="35.1267300">
<ele>696.289978</ele>
<time>2025-10-14T20:39:04.341Z</time>
</trkpt>
<trkpt lat="31.7755300" lon="35.1275900">
<ele>691.980042</ele>
<time>2025-10-14T20:39:04.341Z</time>
</trkpt>
<trkpt lat="31.7755700" lon="35.1277400">
<ele>689.439941</ele>
<time>2025-10-14T20:39:04.341Z</time>
</trkpt>
<trkpt lat="31.7757200" lon="35.1277900">
<ele>687.619995</ele>
<time>2025-10-14T20:39:04.341Z</time>
</trkpt>
<trkpt lat="31.7762100" lon="35.1277800">
<ele>690.460022</ele>
<time>2025-10-14T20:39:04.341Z</time>
</trkpt>
<trkpt lat="31.7763300" lon="35.1278600">
<ele>692.099976</ele>
<time>2025-10-14T20:39:04.341Z</time>
</trkpt>
<trkpt lat="31.7764100" lon="35.1279300">
<ele>692.219971</ele>
<time>2025-10-14T20:39:04.341Z</time>
</trkpt>
<trkpt lat="31.7766600" lon="35.1283100">
<ele>683.440002</ele>
<time>2025-10-14T20:39:04.341Z</time>
</trkpt>
<trkpt lat="31.7769700" lon="35.1285000">
<ele>673.829956</ele>
<time>2025-10-14T20:39:04.341Z</time>
</trkpt>
<trkpt lat="31.7770200" lon="35.1285600">
<ele>672.549988</ele>
<time>2025-10-14T20:39:04.341Z</time>
</trkpt>
<trkpt lat="31.7770500" lon="35.1287000">
<ele>669.870056</ele>
<time>2025-10-14T20:39:04.341Z</time>
</trkpt>
<trkpt lat="31.7769800" lon="35.1287800">
<ele>667.929993</ele>
<time>2025-10-14T20:39:04.341Z</time>
</trkpt>
<trkpt lat="31.7767500" lon="35.1288400">
<ele>666.359985</ele>
<time>2025-10-14T20:39:04.342Z</time>
</trkpt>
<trkpt lat="31.7762400" lon="35.1290000">
<ele>663.510010</ele>
<time>2025-10-14T20:39:04.342Z</time>
</trkpt>
<trkpt lat="31.7759500" lon="35.1288900">
<ele>664.229980</ele>
<time>2025-10-14T20:39:04.342Z</time>
</trkpt>
<trkpt lat="31.7750500" lon="35.1287700">
<ele>666.669983</ele>
<time>2025-10-14T20:39:04.342Z</time>
</trkpt>
<trkpt lat="31.7748100" lon="35.1287200">
<ele>663.839966</ele>
<time>2025-10-14T20:39:04.342Z</time>
</trkpt>
<trkpt lat="31.7741100" lon="35.1284100">
<ele>656.540039</ele>
<time>2025-10-14T20:39:04.342Z</time>
</trkpt>
<trkpt lat="31.7736800" lon="35.1280200">
<ele>647.419983</ele>
<time>2025-10-14T20:39:04.342Z</time>
</trkpt>
<trkpt lat="31.7735500" lon="35.1278700">
<ele>641.700012</ele>
<time>2025-10-14T20:39:04.342Z</time>
</trkpt>
<trkpt lat="31.7735400" lon="35.1276300">
<ele>641.300049</ele>
<time>2025-10-14T20:39:04.342Z</time>
</trkpt>
<trkpt lat="31.7736100" lon="35.1273600">
<ele>645.950012</ele>
<time>2025-10-14T20:39:04.342Z</time>
</trkpt>
<trkpt lat="31.7736300" lon="35.1271400">
<ele>649.050049</ele>
<time>2025-10-14T20:39:04.342Z</time>
</trkpt>
<trkpt lat="31.7735900" lon="35.1269300">
<ele>651.320007</ele>
<time>2025-10-14T20:39:04.342Z</time>
</trkpt>
<trkpt lat="31.7735200" lon="35.1268400">
<ele>650.179993</ele>
<time>2025-10-14T20:39:04.342Z</time>
</trkpt>
<trkpt lat="31.7734000" lon="35.1268000">
<ele>646.940002</ele>
<time>2025-10-14T20:39:04.342Z</time>
</trkpt>
<trkpt lat="31.7732400" lon="35.1267800">
<ele>641.020020</ele>
<time>2025-10-14T20:39:04.342Z</time>
</trkpt>
<trkpt lat="31.7730800" lon="35.1267900">
<ele>633.250000</ele>
<time>2025-10-14T20:39:04.342Z</time>
</trkpt>
<trkpt lat="31.7729200" lon="35.1267400">
<ele>629.110046</ele>
<time>2025-10-14T20:39:04.342Z</time>
</trkpt>
<trkpt lat="31.7727700" lon="35.1266600">
<ele>626.330017</ele>
<time>2025-10-14T20:39:04.342Z</time>
</trkpt>
<trkpt lat="31.7724500" lon="35.1265400">
<ele>631.410034</ele>
<time>2025-10-14T20:39:04.342Z</time>
</trkpt>
<trkpt lat="31.7720400" lon="35.1264300">
<ele>631.619995</ele>
<time>2025-10-14T20:39:04.342Z</time>
</trkpt>
<trkpt lat="31.7715300" lon="35.1263700">
<ele>626.409973</ele>
<time>2025-10-14T20:39:04.342Z</time>
</trkpt>
<trkpt lat="31.7712200" lon="35.1263900">
<ele>621.539978</ele>
<time>2025-10-14T20:39:04.342Z</time>
</trkpt>
<trkpt lat="31.7706200" lon="35.1262300">
<ele>632.010010</ele>
<time>2025-10-14T20:39:04.342Z</time>
</trkpt>
<trkpt lat="31.7704600" lon="35.1261300">
<ele>634.489990</ele>
<time>2025-10-14T20:39:04.342Z</time>
</trkpt>
<trkpt lat="31.7702800" lon="35.1259800">
<ele>634.440002</ele>
<time>2025-10-14T20:39:04.342Z</time>
</trkpt>
<trkpt lat="31.7701900" lon="35.1258400">
<ele>633.719971</ele>
<time>2025-10-14T20:39:04.342Z</time>
</trkpt>
<trkpt lat="31.7701400" lon="35.1256300">
<ele>633.260010</ele>
<time>2025-10-14T20:39:04.343Z</time>
</trkpt>
<trkpt lat="31.7701400" lon="35.1254900">
<ele>633.180054</ele>
<time>2025-10-14T20:39:04.343Z</time>
</trkpt>
<trkpt lat="31.7702100" lon="35.1252500">
<ele>634.159973</ele>
<time>2025-10-14T20:39:04.343Z</time>
</trkpt>
<trkpt lat="31.7703200" lon="35.1250300">
<ele>634.770020</ele>
<time>2025-10-14T20:39:04.343Z</time>
</trkpt>
<trkpt lat="31.7706400" lon="35.1245300">
<ele>636.569946</ele>
<time>2025-10-14T20:39:04.343Z</time>
</trkpt>
<trkpt lat="31.7710300" lon="35.1239900">
<ele>641.759949</ele>
<time>2025-10-14T20:39:04.343Z</time>
</trkpt>
<trkpt lat="31.7715700" lon="35.1234200">
<ele>650.729980</ele>
<time>2025-10-14T20:39:04.343Z</time>
</trkpt>
<trkpt lat="31.7716300" lon="35.1233300">
<ele>652.390015</ele>
<time>2025-10-14T20:39:04.343Z</time>
</trkpt>
<trkpt lat="31.7717000" lon="35.1231000">
<ele>657.179993</ele>
<time>2025-10-14T20:39:04.343Z</time>
</trkpt>
<trkpt lat="31.7717000" lon="35.1230100">
<ele>658.400024</ele>
<time>2025-10-14T20:39:04.343Z</time>
</trkpt>
<trkpt lat="31.7716200" lon="35.1228600">
<ele>659.089966</ele>
<time>2025-10-14T20:39:04.343Z</time>
</trkpt>
<trkpt lat="31.7712600" lon="35.1225900">
<ele>663.740051</ele>
<time>2025-10-14T20:39:04.343Z</time>
</trkpt>
<trkpt lat="31.7706100" lon="35.1222400">
<ele>667.270020</ele>
<time>2025-10-14T20:39:04.343Z</time>
</trkpt>
<trkpt lat="31.7704500" lon="35.1222100">
<ele>664.849976</ele>
<time>2025-10-14T20:39:04.343Z</time>
</trkpt>
<trkpt lat="31.7702300" lon="35.1221400">
<ele>664.650024</ele>
<time>2025-10-14T20:39:04.343Z</time>
</trkpt>
<trkpt lat="31.7698800" lon="35.1221100">
<ele>656.630005</ele>
<time>2025-10-14T20:39:04.343Z</time>
</trkpt>
<trkpt lat="31.7695000" lon="35.1221200">
<ele>646.809998</ele>
<time>2025-10-14T20:39:04.343Z</time>
</trkpt>
<trkpt lat="31.7692000" lon="35.1222100">
<ele>641.440002</ele>
<time>2025-10-14T20:39:04.343Z</time>
</trkpt>
<trkpt lat="31.7683400" lon="35.1225200">
<ele>627.039978</ele>
<time>2025-10-14T20:39:04.343Z</time>
</trkpt>
<trkpt lat="31.7680600" lon="35.1226000">
<ele>621.090027</ele>
<time>2025-10-14T20:39:04.343Z</time>
</trkpt>
<trkpt lat="31.7677100" lon="35.1225700">
<ele>624.529968</ele>
<time>2025-10-14T20:39:04.343Z</time>
</trkpt>
<trkpt lat="31.7673500" lon="35.1225100">
<ele>627.150024</ele>
<time>2025-10-14T20:39:04.343Z</time>
</trkpt>
<trkpt lat="31.7673600" lon="35.1226100">
<ele>624.919983</ele>
<time>2025-10-14T20:39:04.343Z</time>
</trkpt>
<trkpt lat="31.7674000" lon="35.1227600">
<ele>621.440002</ele>
<time>2025-10-14T20:39:04.343Z</time>
</trkpt>
<trkpt lat="31.7678400" lon="35.1231900">
<ele>612.839966</ele>
<time>2025-10-14T20:39:04.344Z</time>
</trkpt>
<trkpt lat="31.7680600" lon="35.1234600">
<ele>612.159973</ele>
<time>2025-10-14T20:39:04.344Z</time>
</trkpt>
<trkpt lat="31.7680700" lon="35.1235200">
<ele>611.260010</ele>
<time>2025-10-14T20:39:04.344Z</time>
</trkpt>
<trkpt lat="31.7680400" lon="35.1236000">
<ele>609.989990</ele>
<time>2025-10-14T20:39:04.344Z</time>
</trkpt>
<trkpt lat="31.7678600" lon="35.1237300">
<ele>603.909973</ele>
<time>2025-10-14T20:39:04.344Z</time>
</trkpt>
<trkpt lat="31.7676100" lon="35.1238700">
<ele>596.720032</ele>
<time>2025-10-14T20:39:04.344Z</time>
</trkpt>
<trkpt lat="31.7673200" lon="35.1239600">
<ele>590.890015</ele>
<time>2025-10-14T20:39:04.344Z</time>
</trkpt>
<trkpt lat="31.7665800" lon="35.1239700">
<ele>578.919983</ele>
<time>2025-10-14T20:39:04.344Z</time>
</trkpt>
<trkpt lat="31.7662500" lon="35.1238900">
<ele>577.989990</ele>
<time>2025-10-14T20:39:04.344Z</time>
</trkpt>
<trkpt lat="31.7661300" lon="35.1238800">
<ele>577.299988</ele>
<time>2025-10-14T20:39:04.344Z</time>
</trkpt>
<trkpt lat="31.7660600" lon="35.1238900">
<ele>576.989990</ele>
<time>2025-10-14T20:39:04.344Z</time>
</trkpt>
<trkpt lat="31.7660400" lon="35.1239500">
<ele>576.450012</ele>
<time>2025-10-14T20:39:04.344Z</time>
</trkpt>
<trkpt lat="31.7660500" lon="35.1240700">
<ele>575.410034</ele>
<time>2025-10-14T20:39:04.344Z</time>
</trkpt>
<trkpt lat="31.7662900" lon="35.1247200">
<ele>566.750000</ele>
<time>2025-10-14T20:39:04.344Z</time>
</trkpt>
<trkpt lat="31.7664700" lon="35.1250300">
<ele>562.979980</ele>
<time>2025-10-14T20:39:04.344Z</time>
</trkpt>
<trkpt lat="31.7667800" lon="35.1254100">
<ele>557.750000</ele>
<time>2025-10-14T20:39:04.344Z</time>
</trkpt>
<trkpt lat="31.7667800" lon="35.1254400">
<ele>557.229980</ele>
<time>2025-10-14T20:39:04.344Z</time>
</trkpt>
<trkpt lat="31.7666700" lon="35.1255000">
<ele>554.839966</ele>
<time>2025-10-14T20:39:04.344Z</time>
</trkpt>
<trkpt lat="31.7664300" lon="35.1255900">
<ele>550.609985</ele>
<time>2025-10-14T20:39:04.344Z</time>
</trkpt>
<trkpt lat="31.7661900" lon="35.1256400">
<ele>545.359985</ele>
<time>2025-10-14T20:39:04.344Z</time>
</trkpt>
<trkpt lat="31.7659800" lon="35.1256000">
<ele>542.790039</ele>
<time>2025-10-14T20:39:04.344Z</time>
</trkpt>
<trkpt lat="31.7657000" lon="35.1255000">
<ele>539.229980</ele>
<time>2025-10-14T20:39:04.344Z</time>
</trkpt>
<trkpt lat="31.7656100" lon="35.1254500">
<ele>537.919983</ele>
<time>2025-10-14T20:39:04.344Z</time>
</trkpt>
<trkpt lat="31.7654400" lon="35.1252900">
<ele>534.299988</ele>
<time>2025-10-14T20:39:04.344Z</time>
</trkpt>
<trkpt lat="31.7653800" lon="35.1252700">
<ele>532.250000</ele>
<time>2025-10-14T20:39:04.344Z</time>
</trkpt>
<trkpt lat="31.7653300" lon="35.1253100">
<ele>529.890015</ele>
<time>2025-10-14T20:39:04.344Z</time>
</trkpt>
<trkpt lat="31.7653200" lon="35.1253800">
<ele>529.140015</ele>
<time>2025-10-14T20:39:04.345Z</time>
</trkpt>
<trkpt lat="31.7653500" lon="35.1255700">
<ele>528.890015</ele>
<time>2025-10-14T20:39:04.345Z</time>
</trkpt>
<trkpt lat="31.7653600" lon="35.1258400">
<ele>525.530029</ele>
<time>2025-10-14T20:39:04.345Z</time>
</trkpt>
<trkpt lat="31.7653800" lon="35.1260300">
<ele>522.250000</ele>
<time>2025-10-14T20:39:04.345Z</time>
</trkpt>
<trkpt lat="31.7653800" lon="35.1260300">
<ele>522.250000</ele>
<time>2025-10-14T20:39:04.345Z</time>
</trkpt>
<trkpt lat="31.7653900" lon="35.1260300">
<ele>522.520020</ele>
<time>2025-10-14T20:39:04.345Z</time>
</trkpt>
<trkpt lat="31.7654000" lon="35.1261000">
<ele>521.320007</ele>
<time>2025-10-14T20:39:04.345Z</time>
</trkpt>
<trkpt lat="31.7653800" lon="35.1262000">
<ele>518.590027</ele>
<time>2025-10-14T20:39:04.345Z</time>
</trkpt>
<trkpt lat="31.7651200" lon="35.1266400">
<ele>503.039978</ele>
<time>2025-10-14T20:39:04.345Z</time>
</trkpt>
<trkpt lat="31.7648800" lon="35.1268300">
<ele>492.110016</ele>
<time>2025-10-14T20:39:04.345Z</time>
</trkpt>
<trkpt lat="31.7647700" lon="35.1269000">
<ele>488.040009</ele>
<time>2025-10-14T20:39:04.345Z</time>
</trkpt>
<trkpt lat="31.7647000" lon="35.1269100">
<ele>487.310028</ele>
<time>2025-10-14T20:39:04.345Z</time>
</trkpt>
<trkpt lat="31.7645300" lon="35.1269100">
<ele>488.760010</ele>
<time>2025-10-14T20:39:04.345Z</time>
</trkpt>
<trkpt lat="31.7641700" lon="35.1268100">
<ele>489.529999</ele>
<time>2025-10-14T20:39:04.345Z</time>
</trkpt>
<trkpt lat="31.7640400" lon="35.1268100">
<ele>485.410004</ele>
<time>2025-10-14T20:39:04.345Z</time>
</trkpt>
<trkpt lat="31.7639600" lon="35.1268300">
<ele>482.890015</ele>
<time>2025-10-14T20:39:04.345Z</time>
</trkpt>
<trkpt lat="31.7638800" lon="35.1268800">
<ele>480.639984</ele>
<time>2025-10-14T20:39:04.345Z</time>
</trkpt>
<trkpt lat="31.7638500" lon="35.1269500">
<ele>480.429993</ele>
<time>2025-10-14T20:39:04.345Z</time>
</trkpt>
<trkpt lat="31.7638400" lon="35.1270300">
<ele>480.149994</ele>
<time>2025-10-14T20:39:04.345Z</time>
</trkpt>
<trkpt lat="31.7638500" lon="35.1270800">
<ele>480.160004</ele>
<time>2025-10-14T20:39:04.345Z</time>
</trkpt>
<trkpt lat="31.7638500" lon="35.1270800">
<ele>480.160004</ele>
<time>2025-10-14T20:39:04.345Z</time>
</trkpt>
<trkpt lat="31.7638600" lon="35.1271400">
<ele>480.100006</ele>
<time>2025-10-14T20:39:04.345Z</time>
</trkpt>
<trkpt lat="31.7639100" lon="35.1273100">
<ele>478.820007</ele>
<time>2025-10-14T20:39:04.345Z</time>
</trkpt>
<trkpt lat="31.7640100" lon="35.1274700">
<ele>475.410004</ele>
<time>2025-10-14T20:39:04.345Z</time>
</trkpt>
<trkpt lat="31.7641400" lon="35.1276500">
<ele>469.769989</ele>
<time>2025-10-14T20:39:04.345Z</time>
</trkpt>
<trkpt lat="31.7642000" lon="35.1277400">
<ele>467.040009</ele>
<time>2025-10-14T20:39:04.345Z</time>
</trkpt>
<trkpt lat="31.7643300" lon="35.1278100">
<ele>467.350006</ele>
<time>2025-10-14T20:39:04.345Z</time>
</trkpt>
<trkpt lat="31.7644300" lon="35.1278500">
<ele>468.750000</ele>
<time>2025-10-14T20:39:04.346Z</time>
</trkpt>
<trkpt lat="31.7645500" lon="35.1278700">
<ele>468.059998</ele>
<time>2025-10-14T20:39:04.346Z</time>
</trkpt>
<trkpt lat="31.7647900" lon="35.1278600">
<ele>466.649994</ele>
<time>2025-10-14T20:39:04.346Z</time>
</trkpt>
<trkpt lat="31.7656700" lon="35.1276000">
<ele>470.400024</ele>
<time>2025-10-14T20:39:04.346Z</time>
</trkpt>
<trkpt lat="31.7660600" lon="35.1275100">
<ele>471.940002</ele>
<time>2025-10-14T20:39:04.346Z</time>
</trkpt>
<trkpt lat="31.7664800" lon="35.1275200">
<ele>478.899994</ele>
<time>2025-10-14T20:39:04.346Z</time>
</trkpt>
<trkpt lat="31.7666500" lon="35.1275500">
<ele>480.590027</ele>
<time>2025-10-14T20:39:04.346Z</time>
</trkpt>
<trkpt lat="31.7667700" lon="35.1275900">
<ele>482.779968</ele>
<time>2025-10-14T20:39:04.346Z</time>
</trkpt>
<trkpt lat="31.7670100" lon="35.1277300">
<ele>486.889984</ele>
<time>2025-10-14T20:39:04.346Z</time>
</trkpt>
<trkpt lat="31.7676400" lon="35.1281600">
<ele>484.190002</ele>
<time>2025-10-14T20:39:04.346Z</time>
</trkpt>
<trkpt lat="31.7676400" lon="35.1281600">
<ele>484.190002</ele>
<time>2025-10-14T20:39:04.346Z</time>
</trkpt>
<trkpt lat="31.7676400" lon="35.1281600">
<ele>484.190002</ele>
<time>2025-10-14T20:39:04.346Z</time>
</trkpt>
<trkpt lat="31.7676400" lon="35.1281600">
<ele>484.190002</ele>
<time>2025-10-14T20:39:04.346Z</time>
</trkpt>
<trkpt lat="31.7677500" lon="35.1282300">
<ele>483.540009</ele>
<time>2025-10-14T20:39:04.346Z</time>
</trkpt>
<trkpt lat="31.7680300" lon="35.1284500">
<ele>488.080017</ele>
<time>2025-10-14T20:39:04.346Z</time>
</trkpt>
<trkpt lat="31.7680800" lon="35.1285100">
<ele>488.139984</ele>
<time>2025-10-14T20:39:04.346Z</time>
</trkpt>
<trkpt lat="31.7681200" lon="35.1286000">
<ele>487.339996</ele>
<time>2025-10-14T20:39:04.346Z</time>
</trkpt>
<trkpt lat="31.7681900" lon="35.1288000">
<ele>486.529999</ele>
<time>2025-10-14T20:39:04.346Z</time>
</trkpt>
<trkpt lat="31.7683300" lon="35.1294400">
<ele>480.029999</ele>
<time>2025-10-14T20:39:04.346Z</time>
</trkpt>
<trkpt lat="31.7683300" lon="35.1294400">
<ele>480.029999</ele>
<time>2025-10-14T20:39:04.346Z</time>
</trkpt>
<trkpt lat="31.7683500" lon="35.1295200">
<ele>480.869995</ele>
<time>2025-10-14T20:39:04.346Z</time>
</trkpt>
<trkpt lat="31.7686000" lon="35.1303600">
<ele>485.099976</ele>
<time>2025-10-14T20:39:04.346Z</time>
</trkpt>
<trkpt lat="31.7686400" lon="35.1304300">
<ele>484.610016</ele>
<time>2025-10-14T20:39:04.346Z</time>
</trkpt>
<trkpt lat="31.7687300" lon="35.1305300">
<ele>482.630005</ele>
<time>2025-10-14T20:39:04.346Z</time>
</trkpt>
<trkpt lat="31.7688200" lon="35.1305900">
<ele>480.609985</ele>
<time>2025-10-14T20:39:04.347Z</time>
</trkpt>
<trkpt lat="31.7689600" lon="35.1306300">
<ele>477.790009</ele>
<time>2025-10-14T20:39:04.347Z</time>
</trkpt>
<trkpt lat="31.7695400" lon="35.1307600">
<ele>476.229980</ele>
<time>2025-10-14T20:39:04.347Z</time>
</trkpt>
<trkpt lat="31.7696700" lon="35.1307500">
<ele>474.869995</ele>
<time>2025-10-14T20:39:04.347Z</time>
</trkpt>
<trkpt lat="31.7692800" lon="35.1309300">
<ele>476.270020</ele>
<time>2025-10-14T20:39:04.347Z</time>
</trkpt>
<trkpt lat="31.7689600" lon="35.1310000">
<ele>480.359985</ele>
<time>2025-10-14T20:39:04.347Z</time>
</trkpt>
<trkpt lat="31.7686500" lon="35.1311600">
<ele>496.919983</ele>
<time>2025-10-14T20:39:04.347Z</time>
</trkpt>
<trkpt lat="31.7686800" lon="35.1311700">
<ele>495.839996</ele>
<time>2025-10-14T20:39:04.347Z</time>
</trkpt>
<trkpt lat="31.7686800" lon="35.1311700">
<ele>495.839996</ele>
<time>2025-10-14T20:39:04.347Z</time>
</trkpt>
<trkpt lat="31.7685900" lon="35.1311400">
<ele>499.040009</ele>
<time>2025-10-14T20:39:04.347Z</time>
</trkpt>
<trkpt lat="31.7684400" lon="35.1309900">
<ele>500.710022</ele>
<time>2025-10-14T20:39:04.347Z</time>
</trkpt>
<trkpt lat="31.7683700" lon="35.1308500">
<ele>498.319977</ele>
<time>2025-10-14T20:39:04.347Z</time>
</trkpt>
<trkpt lat="31.7682600" lon="35.1303700">
<ele>490.300018</ele>
<time>2025-10-14T20:39:04.347Z</time>
</trkpt>
<trkpt lat="31.7680900" lon="35.1294900">
<ele>481.029999</ele>
<time>2025-10-14T20:39:04.347Z</time>
</trkpt>
<trkpt lat="31.7679600" lon="35.1291400">
<ele>480.399994</ele>
<time>2025-10-14T20:39:04.347Z</time>
</trkpt>
<trkpt lat="31.7678100" lon="35.1288400">
<ele>482.309998</ele>
<time>2025-10-14T20:39:04.347Z</time>
</trkpt>
<trkpt lat="31.7676300" lon="35.1285900">
<ele>484.520020</ele>
<time>2025-10-14T20:39:04.347Z</time>
</trkpt>
<trkpt lat="31.7671200" lon="35.1281100">
<ele>490.390015</ele>
<time>2025-10-14T20:39:04.347Z</time>
</trkpt>
<trkpt lat="31.7667700" lon="35.1278800">
<ele>488.850006</ele>
<time>2025-10-14T20:39:04.347Z</time>
</trkpt>
<trkpt lat="31.7664000" lon="35.1278200">
<ele>482.210022</ele>
<time>2025-10-14T20:39:04.347Z</time>
</trkpt>
<trkpt lat="31.7661500" lon="35.1278000">
<ele>476.539978</ele>
<time>2025-10-14T20:39:04.347Z</time>
</trkpt>
<trkpt lat="31.7653800" lon="35.1279900">
<ele>473.879974</ele>
<time>2025-10-14T20:39:04.347Z</time>
</trkpt>
<trkpt lat="31.7644000" lon="35.1281100">
<ele>474.949982</ele>
<time>2025-10-14T20:39:04.347Z</time>
</trkpt>
<trkpt lat="31.7638300" lon="35.1281500">
<ele>482.649994</ele>
<time>2025-10-14T20:39:04.347Z</time>
</trkpt>
<trkpt lat="31.7636500" lon="35.1281200">
<ele>481.400024</ele>
<time>2025-10-14T20:39:04.347Z</time>
</trkpt>
<trkpt lat="31.7635400" lon="35.1280800">
<ele>478.950012</ele>
<time>2025-10-14T20:39:04.347Z</time>
</trkpt>
<trkpt lat="31.7635300" lon="35.1281000">
<ele>479.399994</ele>
<time>2025-10-14T20:39:04.347Z</time>
</trkpt>
<trkpt lat="31.7635300" lon="35.1281000">
<ele>479.399994</ele>
<time>2025-10-14T20:39:04.348Z</time>
</trkpt>
<trkpt lat="31.7635400" lon="35.1280800">
<ele>478.950012</ele>
<time>2025-10-14T20:39:04.348Z</time>
</trkpt>
<trkpt lat="31.7633700" lon="35.1279700">
<ele>475.970032</ele>
<time>2025-10-14T20:39:04.348Z</time>
</trkpt>
<trkpt lat="31.7632400" lon="35.1278300">
<ele>476.529968</ele>
<time>2025-10-14T20:39:04.348Z</time>
</trkpt>
<trkpt lat="31.7631200" lon="35.1276000">
<ele>477.239990</ele>
<time>2025-10-14T20:39:04.348Z</time>
</trkpt>
<trkpt lat="31.7630500" lon="35.1274100">
<ele>476.579987</ele>
<time>2025-10-14T20:39:04.348Z</time>
</trkpt>
<trkpt lat="31.7629900" lon="35.1271800">
<ele>477.680023</ele>
<time>2025-10-14T20:39:04.348Z</time>
</trkpt>
<trkpt lat="31.7629600" lon="35.1269600">
<ele>478.179993</ele>
<time>2025-10-14T20:39:04.348Z</time>
</trkpt>
<trkpt lat="31.7629600" lon="35.1267200">
<ele>477.349976</ele>
<time>2025-10-14T20:39:04.348Z</time>
</trkpt>
<trkpt lat="31.7629900" lon="35.1263600">
<ele>474.250000</ele>
<time>2025-10-14T20:39:04.348Z</time>
</trkpt>
<trkpt lat="31.7631500" lon="35.1258000">
<ele>469.460022</ele>
<time>2025-10-14T20:39:04.348Z</time>
</trkpt>
<trkpt lat="31.7634300" lon="35.1251700">
<ele>471.569977</ele>
<time>2025-10-14T20:39:04.348Z</time>
</trkpt>
<trkpt lat="31.7635400" lon="35.1248600">
<ele>469.230011</ele>
<time>2025-10-14T20:39:04.348Z</time>
</trkpt>
<trkpt lat="31.7635900" lon="35.1245500">
<ele>471.320007</ele>
<time>2025-10-14T20:39:04.348Z</time>
</trkpt>
<trkpt lat="31.7636000" lon="35.1241400">
<ele>474.489990</ele>
<time>2025-10-14T20:39:04.348Z</time>
</trkpt>
<trkpt lat="31.7634100" lon="35.1217000">
<ele>472.119995</ele>
<time>2025-10-14T20:39:04.348Z</time>
</trkpt>
<trkpt lat="31.7634100" lon="35.1217000">
<ele>472.119995</ele>
<time>2025-10-14T20:39:04.348Z</time>
</trkpt>
<trkpt lat="31.7633700" lon="35.1212400">
<ele>471.210022</ele>
<time>2025-10-14T20:39:04.348Z</time>
</trkpt>
<trkpt lat="31.7633200" lon="35.1209500">
<ele>470.820007</ele>
<time>2025-10-14T20:39:04.348Z</time>
</trkpt>
<trkpt lat="31.7631700" lon="35.1205500">
<ele>473.079987</ele>
<time>2025-10-14T20:39:04.348Z</time>
</trkpt>
<trkpt lat="31.7630000" lon="35.1202500">
<ele>474.340027</ele>
<time>2025-10-14T20:39:04.348Z</time>
</trkpt>
<trkpt lat="31.7627800" lon="35.1199900">
<ele>474.810028</ele>
<time>2025-10-14T20:39:04.348Z</time>
</trkpt>
<trkpt lat="31.7622000" lon="35.1194400">
<ele>470.799988</ele>
<time>2025-10-14T20:39:04.348Z</time>
</trkpt>
<trkpt lat="31.7622000" lon="35.1194300">
<ele>470.700012</ele>
<time>2025-10-14T20:39:04.349Z</time>
</trkpt>
<trkpt lat="31.7622000" lon="35.1194300">
<ele>470.700012</ele>
<time>2025-10-14T20:39:04.349Z</time>
</trkpt>
<trkpt lat="31.7622000" lon="35.1194400">
<ele>470.799988</ele>
<time>2025-10-14T20:39:04.349Z</time>
</trkpt>
<trkpt lat="31.7621600" lon="35.1194000">
<ele>470.250000</ele>
<time>2025-10-14T20:39:04.349Z</time>
</trkpt>
<trkpt lat="31.7620600" lon="35.1195700">
<ele>471.080017</ele>
<time>2025-10-14T20:39:04.349Z</time>
</trkpt>
<trkpt lat="31.7617600" lon="35.1201600">
<ele>477.819977</ele>
<time>2025-10-14T20:39:04.349Z</time>
</trkpt>
<trkpt lat="31.7617000" lon="35.1203100">
<ele>478.790009</ele>
<time>2025-10-14T20:39:04.349Z</time>
</trkpt>
<trkpt lat="31.7616000" lon="35.1206400">
<ele>479.529999</ele>
<time>2025-10-14T20:39:04.349Z</time>
</trkpt>
<trkpt lat="31.7612800" lon="35.1215300">
<ele>490.650024</ele>
<time>2025-10-14T20:39:04.349Z</time>
</trkpt>
<trkpt lat="31.7612400" lon="35.1219200">
<ele>493.309967</ele>
<time>2025-10-14T20:39:04.349Z</time>
</trkpt>
<trkpt lat="31.7612400" lon="35.1219200">
<ele>493.309967</ele>
<time>2025-10-14T20:39:04.349Z</time>
</trkpt>
<trkpt lat="31.7612100" lon="35.1221000">
<ele>495.639984</ele>
<time>2025-10-14T20:39:04.349Z</time>
</trkpt>
<trkpt lat="31.7611300" lon="35.1223400">
<ele>496.430023</ele>
<time>2025-10-14T20:39:04.349Z</time>
</trkpt>
<trkpt lat="31.7610300" lon="35.1225200">
<ele>496.680023</ele>
<time>2025-10-14T20:39:04.349Z</time>
</trkpt>
<trkpt lat="31.7608600" lon="35.1227300">
<ele>499.600006</ele>
<time>2025-10-14T20:39:04.349Z</time>
</trkpt>
<trkpt lat="31.7604500" lon="35.1231900">
<ele>510.119995</ele>
<time>2025-10-14T20:39:04.349Z</time>
</trkpt>
<trkpt lat="31.7603500" lon="35.1232900">
<ele>511.399994</ele>
<time>2025-10-14T20:39:04.349Z</time>
</trkpt>
<trkpt lat="31.7601700" lon="35.1234200">
<ele>514.630005</ele>
<time>2025-10-14T20:39:04.349Z</time>
</trkpt>
<trkpt lat="31.7600900" lon="35.1234700">
<ele>516.190002</ele>
<time>2025-10-14T20:39:04.349Z</time>
</trkpt>
<trkpt lat="31.7600900" lon="35.1234700">
<ele>516.190002</ele>
<time>2025-10-14T20:39:04.349Z</time>
</trkpt>
<trkpt lat="31.7600900" lon="35.1234700">
<ele>516.190002</ele>
<time>2025-10-14T20:39:04.349Z</time>
</trkpt>
<trkpt lat="31.7600900" lon="35.1234700">
<ele>516.190002</ele>
<time>2025-10-14T20:39:04.349Z</time>
</trkpt>
<trkpt lat="31.7599300" lon="35.1235800">
<ele>517.500000</ele>
<time>2025-10-14T20:39:04.350Z</time>
</trkpt>
<trkpt lat="31.7598500" lon="35.1235000">
<ele>517.380005</ele>
<time>2025-10-14T20:39:04.350Z</time>
</trkpt>
<trkpt lat="31.7600400" lon="35.1232800">
<ele>516.440002</ele>
<time>2025-10-14T20:39:04.350Z</time>
</trkpt>
<trkpt lat="31.7600100" lon="35.1232400">
<ele>517.140015</ele>
<time>2025-10-14T20:39:04.350Z</time>
</trkpt>
<trkpt lat="31.7599500" lon="35.1232100">
<ele>517.880005</ele>
<time>2025-10-14T20:39:04.350Z</time>
</trkpt>
<trkpt lat="31.7595700" lon="35.1232600">
<ele>523.109985</ele>
<time>2025-10-14T20:39:04.350Z</time>
</trkpt>
<trkpt lat="31.7594300" lon="35.1233200">
<ele>525.599976</ele>
<time>2025-10-14T20:39:04.350Z</time>
</trkpt>
<trkpt lat="31.7593500" lon="35.1233000">
<ele>528.039978</ele>
<time>2025-10-14T20:39:04.350Z</time>
</trkpt>
<trkpt lat="31.7593400" lon="35.1232200">
<ele>529.029968</ele>
<time>2025-10-14T20:39:04.350Z</time>
</trkpt>
<trkpt lat="31.7594000" lon="35.1231200">
<ele>528.859985</ele>
<time>2025-10-14T20:39:04.350Z</time>
</trkpt>
<trkpt lat="31.7595300" lon="35.1229400">
<ele>528.619995</ele>
<time>2025-10-14T20:39:04.350Z</time>
</trkpt>
<trkpt lat="31.7595700" lon="35.1228100">
<ele>529.799988</ele>
<time>2025-10-14T20:39:04.350Z</time>
</trkpt>
<trkpt lat="31.7595500" lon="35.1227100">
<ele>531.359985</ele>
<time>2025-10-14T20:39:04.350Z</time>
</trkpt>
<trkpt lat="31.7594900" lon="35.1225600">
<ele>534.130005</ele>
<time>2025-10-14T20:39:04.350Z</time>
</trkpt>
<trkpt lat="31.7594100" lon="35.1224400">
<ele>536.690002</ele>
<time>2025-10-14T20:39:04.350Z</time>
</trkpt>
<trkpt lat="31.7591900" lon="35.1222800">
<ele>540.049988</ele>
<time>2025-10-14T20:39:04.350Z</time>
</trkpt>
<trkpt lat="31.7590500" lon="35.1221400">
<ele>538.989990</ele>
<time>2025-10-14T20:39:04.350Z</time>
</trkpt>
<trkpt lat="31.7588300" lon="35.1220200">
<ele>537.679993</ele>
<time>2025-10-14T20:39:04.350Z</time>
</trkpt>
<trkpt lat="31.7585800" lon="35.1219500">
<ele>543.250000</ele>
<time>2025-10-14T20:39:04.350Z</time>
</trkpt>
<trkpt lat="31.7583300" lon="35.1219300">
<ele>544.380005</ele>
<time>2025-10-14T20:39:04.350Z</time>
</trkpt>
<trkpt lat="31.7583300" lon="35.1219300">
<ele>544.380005</ele>
<time>2025-10-14T20:39:04.350Z</time>
</trkpt>
<trkpt lat="31.7581900" lon="35.1219200">
<ele>544.130005</ele>
<time>2025-10-14T20:39:04.350Z</time>
</trkpt>
<trkpt lat="31.7579300" lon="35.1218500">
<ele>544.679993</ele>
<time>2025-10-14T20:39:04.351Z</time>
</trkpt>
<trkpt lat="31.7576900" lon="35.1218200">
<ele>547.750000</ele>
<time>2025-10-14T20:39:04.351Z</time>
</trkpt>
<trkpt lat="31.7571500" lon="35.1217000">
<ele>557.409973</ele>
<time>2025-10-14T20:39:04.351Z</time>
</trkpt>
<trkpt lat="31.7570900" lon="35.1216900">
<ele>559.309998</ele>
<time>2025-10-14T20:39:04.351Z</time>
</trkpt>
<trkpt lat="31.7571000" lon="35.1216800">
<ele>558.710022</ele>
<time>2025-10-14T20:39:04.351Z</time>
</trkpt>
<trkpt lat="31.7571000" lon="35.1216800">
<ele>558.710022</ele>
<time>2025-10-14T20:39:04.351Z</time>
</trkpt>
<trkpt lat="31.7569200" lon="35.1216600">
<ele>564.320007</ele>
<time>2025-10-14T20:39:04.351Z</time>
</trkpt>
<trkpt lat="31.7568400" lon="35.1216200">
<ele>565.039978</ele>
<time>2025-10-14T20:39:04.351Z</time>
</trkpt>
<trkpt lat="31.7567900" lon="35.1215500">
<ele>564.679993</ele>
<time>2025-10-14T20:39:04.351Z</time>
</trkpt>
<trkpt lat="31.7567700" lon="35.1214700">
<ele>563.600037</ele>
<time>2025-10-14T20:39:04.351Z</time>
</trkpt>
<trkpt lat="31.7568200" lon="35.1213000">
<ele>560.419983</ele>
<time>2025-10-14T20:39:04.351Z</time>
</trkpt>
<trkpt lat="31.7569500" lon="35.1210000">
<ele>555.420044</ele>
<time>2025-10-14T20:39:04.351Z</time>
</trkpt>
<trkpt lat="31.7569900" lon="35.1208300">
<ele>553.320007</ele>
<time>2025-10-14T20:39:04.351Z</time>
</trkpt>
<trkpt lat="31.7570100" lon="35.1206700">
<ele>550.739990</ele>
<time>2025-10-14T20:39:04.351Z</time>
</trkpt>
<trkpt lat="31.7570000" lon="35.1204800">
<ele>548.489990</ele>
<time>2025-10-14T20:39:04.351Z</time>
</trkpt>
<trkpt lat="31.7569800" lon="35.1203700">
<ele>547.339966</ele>
<time>2025-10-14T20:39:04.351Z</time>
</trkpt>
<trkpt lat="31.7569200" lon="35.1202200">
<ele>547.869995</ele>
<time>2025-10-14T20:39:04.351Z</time>
</trkpt>
<trkpt lat="31.7567900" lon="35.1199800">
<ele>552.940002</ele>
<time>2025-10-14T20:39:04.351Z</time>
</trkpt>
<trkpt lat="31.7565900" lon="35.1196900">
<ele>556.580017</ele>
<time>2025-10-14T20:39:04.351Z</time>
</trkpt>
<trkpt lat="31.7565200" lon="35.1196100">
<ele>557.229980</ele>
<time>2025-10-14T20:39:04.351Z</time>
</trkpt>
<trkpt lat="31.7562000" lon="35.1193900">
<ele>562.109985</ele>
<time>2025-10-14T20:39:04.351Z</time>
</trkpt>
<trkpt lat="31.7561300" lon="35.1193200">
<ele>562.709961</ele>
<time>2025-10-14T20:39:04.352Z</time>
</trkpt>
<trkpt lat="31.7559800" lon="35.1190600">
<ele>559.320007</ele>
<time>2025-10-14T20:39:04.352Z</time>
</trkpt>
<trkpt lat="31.7558200" lon="35.1188700">
<ele>556.669983</ele>
<time>2025-10-14T20:39:04.352Z</time>
</trkpt>
<trkpt lat="31.7553100" lon="35.1184500">
<ele>553.299988</ele>
<time>2025-10-14T20:39:04.352Z</time>
</trkpt>
<trkpt lat="31.7551800" lon="35.1183600">
<ele>554.159973</ele>
<time>2025-10-14T20:39:04.352Z</time>
</trkpt>
<trkpt lat="31.7548300" lon="35.1181700">
<ele>556.250000</ele>
<time>2025-10-14T20:39:04.352Z</time>
</trkpt>
<trkpt lat="31.7545400" lon="35.1181000">
<ele>561.670044</ele>
<time>2025-10-14T20:39:04.352Z</time>
</trkpt>
<trkpt lat="31.7543300" lon="35.1180700">
<ele>565.580017</ele>
<time>2025-10-14T20:39:04.352Z</time>
</trkpt>
<trkpt lat="31.7542700" lon="35.1180400">
<ele>565.869995</ele>
<time>2025-10-14T20:39:04.352Z</time>
</trkpt>
<trkpt lat="31.7542000" lon="35.1179800">
<ele>566.419983</ele>
<time>2025-10-14T20:39:04.352Z</time>
</trkpt>
<trkpt lat="31.7536600" lon="35.1165900">
<ele>577.470032</ele>
<time>2025-10-14T20:39:04.352Z</time>
</trkpt>
<trkpt lat="31.7536100" lon="35.1165100">
<ele>579.419983</ele>
<time>2025-10-14T20:39:04.352Z</time>
</trkpt>
<trkpt lat="31.7535500" lon="35.1164500">
<ele>578.359985</ele>
<time>2025-10-14T20:39:04.352Z</time>
</trkpt>
<trkpt lat="31.7534400" lon="35.1164400">
<ele>576.669983</ele>
<time>2025-10-14T20:39:04.352Z</time>
</trkpt>
<trkpt lat="31.7533600" lon="35.1164600">
<ele>575.889954</ele>
<time>2025-10-14T20:39:04.352Z</time>
</trkpt>
<trkpt lat="31.7529800" lon="35.1167200">
<ele>569.899963</ele>
<time>2025-10-14T20:39:04.352Z</time>
</trkpt>
<trkpt lat="31.7526700" lon="35.1168600">
<ele>566.919983</ele>
<time>2025-10-14T20:39:04.352Z</time>
</trkpt>
<trkpt lat="31.7525700" lon="35.1168800">
<ele>567.090027</ele>
<time>2025-10-14T20:39:04.352Z</time>
</trkpt>
<trkpt lat="31.7524300" lon="35.1168800">
<ele>567.640015</ele>
<time>2025-10-14T20:39:04.352Z</time>
</trkpt>
<trkpt lat="31.7523700" lon="35.1168600">
<ele>568.119995</ele>
<time>2025-10-14T20:39:04.353Z</time>
</trkpt>
<trkpt lat="31.7523100" lon="35.1168100">
<ele>568.390015</ele>
<time>2025-10-14T20:39:04.353Z</time>
</trkpt>
<trkpt lat="31.7522100" lon="35.1166300">
<ele>568.559998</ele>
<time>2025-10-14T20:39:04.353Z</time>
</trkpt>
<trkpt lat="31.7520400" lon="35.1161600">
<ele>572.599976</ele>
<time>2025-10-14T20:39:04.353Z</time>
</trkpt>
<trkpt lat="31.7517400" lon="35.1155700">
<ele>583.059998</ele>
<time>2025-10-14T20:39:04.353Z</time>
</trkpt>
<trkpt lat="31.7514000" lon="35.1151400">
<ele>585.380005</ele>
<time>2025-10-14T20:39:04.353Z</time>
</trkpt>
<trkpt lat="31.7511200" lon="35.1147300">
<ele>586.020020</ele>
<time>2025-10-14T20:39:04.353Z</time>
</trkpt>
<trkpt lat="31.7507900" lon="35.1144500">
<ele>582.399963</ele>
<time>2025-10-14T20:39:04.353Z</time>
</trkpt>
<trkpt lat="31.7507400" lon="35.1143700">
<ele>581.419983</ele>
<time>2025-10-14T20:39:04.353Z</time>
</trkpt>
<trkpt lat="31.7507300" lon="35.1142900">
<ele>580.109985</ele>
<time>2025-10-14T20:39:04.353Z</time>
</trkpt>
<trkpt lat="31.7507700" lon="35.1141800">
<ele>578.209961</ele>
<time>2025-10-14T20:39:04.353Z</time>
</trkpt>
<trkpt lat="31.7510500" lon="35.1138600">
<ele>577.270020</ele>
<time>2025-10-14T20:39:04.353Z</time>
</trkpt>
<trkpt lat="31.7511200" lon="35.1137200">
<ele>578.580017</ele>
<time>2025-10-14T20:39:04.353Z</time>
</trkpt>
<trkpt lat="31.7512300" lon="35.1133800">
<ele>579.520020</ele>
<time>2025-10-14T20:39:04.353Z</time>
</trkpt>
<trkpt lat="31.7515800" lon="35.1113200">
<ele>576.149963</ele>
<time>2025-10-14T20:39:04.353Z</time>
</trkpt>
<trkpt lat="31.7515600" lon="35.1109000">
<ele>576.770020</ele>
<time>2025-10-14T20:39:04.353Z</time>
</trkpt>
<trkpt lat="31.7514600" lon="35.1104600">
<ele>578.799988</ele>
<time>2025-10-14T20:39:04.353Z</time>
</trkpt>
<trkpt lat="31.7513500" lon="35.1102900">
<ele>582.340027</ele>
<time>2025-10-14T20:39:04.354Z</time>
</trkpt>
<trkpt lat="31.7511700" lon="35.1101300">
<ele>584.479980</ele>
<time>2025-10-14T20:39:04.354Z</time>
</trkpt>
<trkpt lat="31.7510800" lon="35.1099800">
<ele>584.660034</ele>
<time>2025-10-14T20:39:04.354Z</time>
</trkpt>
<trkpt lat="31.7510500" lon="35.1098100">
<ele>582.580017</ele>
<time>2025-10-14T20:39:04.354Z</time>
</trkpt>
<trkpt lat="31.7510700" lon="35.1096500">
<ele>580.659973</ele>
<time>2025-10-14T20:39:04.354Z</time>
</trkpt>
<trkpt lat="31.7511900" lon="35.1092500">
<ele>574.979980</ele>
<time>2025-10-14T20:39:04.354Z</time>
</trkpt>
<trkpt lat="31.7513300" lon="35.1090400">
<ele>574.119995</ele>
<time>2025-10-14T20:39:04.354Z</time>
</trkpt>
<trkpt lat="31.7517700" lon="35.1085400">
<ele>575.109985</ele>
<time>2025-10-14T20:39:04.354Z</time>
</trkpt>
<trkpt lat="31.7521400" lon="35.1080400">
<ele>575.030029</ele>
<time>2025-10-14T20:39:04.354Z</time>
</trkpt>
<trkpt lat="31.7523200" lon="35.1077400">
<ele>574.909973</ele>
<time>2025-10-14T20:39:04.354Z</time>
</trkpt>
<trkpt lat="31.7524000" lon="35.1075200">
<ele>575.359985</ele>
<time>2025-10-14T20:39:04.354Z</time>
</trkpt>
<trkpt lat="31.7526800" lon="35.1071500">
<ele>573.940002</ele>
<time>2025-10-14T20:39:04.354Z</time>
</trkpt>
<trkpt lat="31.7530900" lon="35.1061700">
<ele>571.600037</ele>
<time>2025-10-14T20:39:04.354Z</time>
</trkpt>
<trkpt lat="31.7532700" lon="35.1055300">
<ele>571.619995</ele>
<time>2025-10-14T20:39:04.354Z</time>
</trkpt>
<trkpt lat="31.7534100" lon="35.1051700">
<ele>569.229980</ele>
<time>2025-10-14T20:39:04.354Z</time>
</trkpt>
<trkpt lat="31.7534200" lon="35.1049600">
<ele>570.589966</ele>
<time>2025-10-14T20:39:04.354Z</time>
</trkpt>
<trkpt lat="31.7533500" lon="35.1044800">
<ele>574.500000</ele>
<time>2025-10-14T20:39:04.354Z</time>
</trkpt>
<trkpt lat="31.7533600" lon="35.1042500">
<ele>575.260010</ele>
<time>2025-10-14T20:39:04.354Z</time>
</trkpt>
<trkpt lat="31.7534100" lon="35.1040000">
<ele>576.100037</ele>
<time>2025-10-14T20:39:04.354Z</time>
</trkpt>
<trkpt lat="31.7534700" lon="35.1038600">
<ele>576.289978</ele>
<time>2025-10-14T20:39:04.355Z</time>
</trkpt>
<trkpt lat="31.7537100" lon="35.1035000">
<ele>577.489990</ele>
<time>2025-10-14T20:39:04.355Z</time>
</trkpt>
<trkpt lat="31.7538200" lon="35.1031400">
<ele>579.019958</ele>
<time>2025-10-14T20:39:04.355Z</time>
</trkpt>
<trkpt lat="31.7539700" lon="35.1027700">
<ele>579.690002</ele>
<time>2025-10-14T20:39:04.355Z</time>
</trkpt>
<trkpt lat="31.7540100" lon="35.1025700">
<ele>579.140015</ele>
<time>2025-10-14T20:39:04.355Z</time>
</trkpt>
<trkpt lat="31.7540800" lon="35.1023300">
<ele>578.429993</ele>
<time>2025-10-14T20:39:04.355Z</time>
</trkpt>
<trkpt lat="31.7541800" lon="35.1017500">
<ele>581.320007</ele>
<time>2025-10-14T20:39:04.355Z</time>
</trkpt>
<trkpt lat="31.7543100" lon="35.1012600">
<ele>580.059998</ele>
<time>2025-10-14T20:39:04.355Z</time>
</trkpt>
<trkpt lat="31.7543100" lon="35.1010100">
<ele>577.539978</ele>
<time>2025-10-14T20:39:04.355Z</time>
</trkpt>
<trkpt lat="31.7542800" lon="35.1008900">
<ele>576.859985</ele>
<time>2025-10-14T20:39:04.355Z</time>
</trkpt>
<trkpt lat="31.7542300" lon="35.1007700">
<ele>576.580017</ele>
<time>2025-10-14T20:39:04.355Z</time>
</trkpt>
<trkpt lat="31.7541600" lon="35.1006900">
<ele>577.030029</ele>
<time>2025-10-14T20:39:04.355Z</time>
</trkpt>
<trkpt lat="31.7539200" lon="35.1005000">
<ele>576.979980</ele>
<time>2025-10-14T20:39:04.355Z</time>
</trkpt>
<trkpt lat="31.7538400" lon="35.1003600">
<ele>575.410034</ele>
<time>2025-10-14T20:39:04.355Z</time>
</trkpt>
<trkpt lat="31.7537500" lon="35.0998200">
<ele>569.030029</ele>
<time>2025-10-14T20:39:04.355Z</time>
</trkpt>
<trkpt lat="31.7535600" lon="35.0990400">
<ele>565.880005</ele>
<time>2025-10-14T20:39:04.355Z</time>
</trkpt>
<trkpt lat="31.7535500" lon="35.0988800">
<ele>563.880005</ele>
<time>2025-10-14T20:39:04.355Z</time>
</trkpt>
<trkpt lat="31.7535700" lon="35.0987900">
<ele>562.480042</ele>
<time>2025-10-14T20:39:04.355Z</time>
</trkpt>
<trkpt lat="31.7537400" lon="35.0985200">
<ele>556.280029</ele>
<time>2025-10-14T20:39:04.356Z</time>
</trkpt>
<trkpt lat="31.7540300" lon="35.0982000">
<ele>550.599976</ele>
<time>2025-10-14T20:39:04.356Z</time>
</trkpt>
<trkpt lat="31.7544100" lon="35.0977000">
<ele>547.020020</ele>
<time>2025-10-14T20:39:04.356Z</time>
</trkpt>
<trkpt lat="31.7555500" lon="35.0967400">
<ele>537.070007</ele>
<time>2025-10-14T20:39:04.356Z</time>
</trkpt>
<trkpt lat="31.7566000" lon="35.0959900">
<ele>525.770020</ele>
<time>2025-10-14T20:39:04.356Z</time>
</trkpt>
<trkpt lat="31.7572800" lon="35.0954300">
<ele>519.229980</ele>
<time>2025-10-14T20:39:04.356Z</time>
</trkpt>
<trkpt lat="31.7577400" lon="35.0949700">
<ele>513.470032</ele>
<time>2025-10-14T20:39:04.356Z</time>
</trkpt>
<trkpt lat="31.7581000" lon="35.0946800">
<ele>513.059998</ele>
<time>2025-10-14T20:39:04.356Z</time>
</trkpt>
<trkpt lat="31.7582200" lon="35.0945200">
<ele>516.260010</ele>
<time>2025-10-14T20:39:04.356Z</time>
</trkpt>
<trkpt lat="31.7582600" lon="35.0944000">
<ele>517.669983</ele>
<time>2025-10-14T20:39:04.356Z</time>
</trkpt>
<trkpt lat="31.7582900" lon="35.0941900">
<ele>518.750000</ele>
<time>2025-10-14T20:39:04.356Z</time>
</trkpt>
<trkpt lat="31.7582700" lon="35.0939800">
<ele>518.250000</ele>
<time>2025-10-14T20:39:04.356Z</time>
</trkpt>
<trkpt lat="31.7582000" lon="35.0938800">
<ele>517.849976</ele>
<time>2025-10-14T20:39:04.356Z</time>
</trkpt>
<trkpt lat="31.7580000" lon="35.0937100">
<ele>519.540039</ele>
<time>2025-10-14T20:39:04.356Z</time>
</trkpt>
<trkpt lat="31.7578000" lon="35.0936100">
<ele>528.020020</ele>
<time>2025-10-14T20:39:04.356Z</time>
</trkpt>
<trkpt lat="31.7575900" lon="35.0934500">
<ele>529.789978</ele>
<time>2025-10-14T20:39:04.356Z</time>
</trkpt>
<trkpt lat="31.7571000" lon="35.0930200">
<ele>528.989990</ele>
<time>2025-10-14T20:39:04.356Z</time>
</trkpt>
<trkpt lat="31.7569400" lon="35.0928500">
<ele>529.919983</ele>
<time>2025-10-14T20:39:04.356Z</time>
</trkpt>
<trkpt lat="31.7568700" lon="35.0927500">
<ele>528.710022</ele>
<time>2025-10-14T20:39:04.356Z</time>
</trkpt>
<trkpt lat="31.7567500" lon="35.0924500">
<ele>523.969971</ele>
<time>2025-10-14T20:39:04.357Z</time>
</trkpt>
<trkpt lat="31.7565500" lon="35.0915000">
<ele>505.809967</ele>
<time>2025-10-14T20:39:04.357Z</time>
</trkpt>
<trkpt lat="31.7565100" lon="35.0913900">
<ele>504.109985</ele>
<time>2025-10-14T20:39:04.357Z</time>
</trkpt>
<trkpt lat="31.7564100" lon="35.0912600">
<ele>505.350006</ele>
<time>2025-10-14T20:39:04.357Z</time>
</trkpt>
<trkpt lat="31.7562500" lon="35.0911800">
<ele>508.370026</ele>
<time>2025-10-14T20:39:04.357Z</time>
</trkpt>
<trkpt lat="31.7561400" lon="35.0911500">
<ele>510.709991</ele>
<time>2025-10-14T20:39:04.357Z</time>
</trkpt>
<trkpt lat="31.7560300" lon="35.0911700">
<ele>511.639984</ele>
<time>2025-10-14T20:39:04.357Z</time>
</trkpt>
<trkpt lat="31.7558400" lon="35.0912800">
<ele>512.820007</ele>
<time>2025-10-14T20:39:04.357Z</time>
</trkpt>
<trkpt lat="31.7556400" lon="35.0914600">
<ele>515.010010</ele>
<time>2025-10-14T20:39:04.357Z</time>
</trkpt>
<trkpt lat="31.7555100" lon="35.0915300">
<ele>518.149963</ele>
<time>2025-10-14T20:39:04.357Z</time>
</trkpt>
<trkpt lat="31.7554100" lon="35.0915700">
<ele>522.010010</ele>
<time>2025-10-14T20:39:04.357Z</time>
</trkpt>
<trkpt lat="31.7552600" lon="35.0915700">
<ele>525.979980</ele>
<time>2025-10-14T20:39:04.357Z</time>
</trkpt>
<trkpt lat="31.7551000" lon="35.0914800">
<ele>528.849976</ele>
<time>2025-10-14T20:39:04.357Z</time>
</trkpt>
<trkpt lat="31.7549900" lon="35.0913700">
<ele>527.429993</ele>
<time>2025-10-14T20:39:04.357Z</time>
</trkpt>
<trkpt lat="31.7548800" lon="35.0912000">
<ele>523.080017</ele>
<time>2025-10-14T20:39:04.357Z</time>
</trkpt>
<trkpt lat="31.7547300" lon="35.0908700">
<ele>518.520020</ele>
<time>2025-10-14T20:39:04.357Z</time>
</trkpt>
<trkpt lat="31.7546400" lon="35.0907400">
<ele>518.710022</ele>
<time>2025-10-14T20:39:04.357Z</time>
</trkpt>
<trkpt lat="31.7545200" lon="35.0906400">
<ele>520.910034</ele>
<time>2025-10-14T20:39:04.357Z</time>
</trkpt>
<trkpt lat="31.7541700" lon="35.0904300">
<ele>527.260010</ele>
<time>2025-10-14T20:39:04.357Z</time>
</trkpt>
<trkpt lat="31.7536600" lon="35.0902300">
<ele>534.159973</ele>
<time>2025-10-14T20:39:04.358Z</time>
</trkpt>
<trkpt lat="31.7534400" lon="35.0901900">
<ele>533.869995</ele>
<time>2025-10-14T20:39:04.358Z</time>
</trkpt>
<trkpt lat="31.7533400" lon="35.0902100">
<ele>533.779968</ele>
<time>2025-10-14T20:39:04.358Z</time>
</trkpt>
<trkpt lat="31.7532700" lon="35.0902400">
<ele>531.869995</ele>
<time>2025-10-14T20:39:04.358Z</time>
</trkpt>
<trkpt lat="31.7529800" lon="35.0905500">
<ele>522.469971</ele>
<time>2025-10-14T20:39:04.358Z</time>
</trkpt>
<trkpt lat="31.7528500" lon="35.0907000">
<ele>522.989990</ele>
<time>2025-10-14T20:39:04.358Z</time>
</trkpt>
<trkpt lat="31.7526400" lon="35.0910500">
<ele>524.130005</ele>
<time>2025-10-14T20:39:04.358Z</time>
</trkpt>
<trkpt lat="31.7522200" lon="35.0923100">
<ele>532.539978</ele>
<time>2025-10-14T20:39:04.358Z</time>
</trkpt>
<trkpt lat="31.7520500" lon="35.0933900">
<ele>532.919983</ele>
<time>2025-10-14T20:39:04.358Z</time>
</trkpt>
<trkpt lat="31.7519700" lon="35.0937200">
<ele>534.200012</ele>
<time>2025-10-14T20:39:04.358Z</time>
</trkpt>
<trkpt lat="31.7518600" lon="35.0939800">
<ele>534.409973</ele>
<time>2025-10-14T20:39:04.358Z</time>
</trkpt>
<trkpt lat="31.7515300" lon="35.0944900">
<ele>531.969971</ele>
<time>2025-10-14T20:39:04.358Z</time>
</trkpt>
<trkpt lat="31.7514200" lon="35.0946000">
<ele>530.760010</ele>
<time>2025-10-14T20:39:04.358Z</time>
</trkpt>
<trkpt lat="31.7509500" lon="35.0949900">
<ele>533.010010</ele>
<time>2025-10-14T20:39:04.358Z</time>
</trkpt>
<trkpt lat="31.7505400" lon="35.0952600">
<ele>535.429993</ele>
<time>2025-10-14T20:39:04.358Z</time>
</trkpt>
<trkpt lat="31.7503100" lon="35.0954600">
<ele>536.479980</ele>
<time>2025-10-14T20:39:04.358Z</time>
</trkpt>
<trkpt lat="31.7502100" lon="35.0955700">
<ele>537.049988</ele>
<time>2025-10-14T20:39:04.358Z</time>
</trkpt>
<trkpt lat="31.7500700" lon="35.0957700">
<ele>538.700012</ele>
<time>2025-10-14T20:39:04.358Z</time>
</trkpt>
<trkpt lat="31.7498700" lon="35.0963100">
<ele>548.230042</ele>
<time>2025-10-14T20:39:04.358Z</time>
</trkpt>
<trkpt lat="31.7498000" lon="35.0964000">
<ele>549.809998</ele>
<time>2025-10-14T20:39:04.359Z</time>
</trkpt>
<trkpt lat="31.7497000" lon="35.0964500">
<ele>550.059998</ele>
<time>2025-10-14T20:39:04.359Z</time>
</trkpt>
<trkpt lat="31.7493400" lon="35.0964500">
<ele>544.049988</ele>
<time>2025-10-14T20:39:04.359Z</time>
</trkpt>
<trkpt lat="31.7492400" lon="35.0964800">
<ele>541.980042</ele>
<time>2025-10-14T20:39:04.359Z</time>
</trkpt>
<trkpt lat="31.7489100" lon="35.0966700">
<ele>542.339966</ele>
<time>2025-10-14T20:39:04.359Z</time>
</trkpt>
<trkpt lat="31.7482500" lon="35.0970000">
<ele>542.820007</ele>
<time>2025-10-14T20:39:04.359Z</time>
</trkpt>
<trkpt lat="31.7479500" lon="35.0971200">
<ele>548.109985</ele>
<time>2025-10-14T20:39:04.359Z</time>
</trkpt>
<trkpt lat="31.7474100" lon="35.0973900">
<ele>552.309998</ele>
<time>2025-10-14T20:39:04.359Z</time>
</trkpt>
<trkpt lat="31.7475100" lon="35.0972100">
<ele>548.100037</ele>
<time>2025-10-14T20:39:04.359Z</time>
</trkpt>
<trkpt lat="31.7482000" lon="35.0966400">
<ele>535.160034</ele>
<time>2025-10-14T20:39:04.359Z</time>
</trkpt>
<trkpt lat="31.7486600" lon="35.0963800">
<ele>530.599976</ele>
<time>2025-10-14T20:39:04.359Z</time>
</trkpt>
<trkpt lat="31.7487300" lon="35.0962900">
<ele>530.940002</ele>
<time>2025-10-14T20:39:04.359Z</time>
</trkpt>
<trkpt lat="31.7487000" lon="35.0961000">
<ele>526.200012</ele>
<time>2025-10-14T20:39:04.359Z</time>
</trkpt>
<trkpt lat="31.7485800" lon="35.0958900">
<ele>523.940002</ele>
<time>2025-10-14T20:39:04.359Z</time>
</trkpt>
<trkpt lat="31.7484100" lon="35.0956900">
<ele>520.419983</ele>
<time>2025-10-14T20:39:04.359Z</time>
</trkpt>
<trkpt lat="31.7482800" lon="35.0956200">
<ele>517.239990</ele>
<time>2025-10-14T20:39:04.359Z</time>
</trkpt>
<trkpt lat="31.7481700" lon="35.0955900">
<ele>513.519958</ele>
<time>2025-10-14T20:39:04.359Z</time>
</trkpt>
<trkpt lat="31.7476100" lon="35.0957000">
<ele>505.750000</ele>
<time>2025-10-14T20:39:04.359Z</time>
</trkpt>
<trkpt lat="31.7469700" lon="35.0956900">
<ele>507.279999</ele>
<time>2025-10-14T20:39:04.359Z</time>
</trkpt>
<trkpt lat="31.7466900" lon="35.0957700">
<ele>508.649994</ele>
<time>2025-10-14T20:39:04.359Z</time>
</trkpt>
<trkpt lat="31.7465100" lon="35.0959300">
<ele>509.740021</ele>
<time>2025-10-14T20:39:04.360Z</time>
</trkpt>
<trkpt lat="31.7462200" lon="35.0962800">
<ele>513.390015</ele>
<time>2025-10-14T20:39:04.360Z</time>
</trkpt>
<trkpt lat="31.7457600" lon="35.0963600">
<ele>517.510010</ele>
<time>2025-10-14T20:39:04.360Z</time>
</trkpt>
<trkpt lat="31.7456600" lon="35.0964100">
<ele>519.160034</ele>
<time>2025-10-14T20:39:04.360Z</time>
</trkpt>
<trkpt lat="31.7454100" lon="35.0967400">
<ele>523.520020</ele>
<time>2025-10-14T20:39:04.360Z</time>
</trkpt>
<trkpt lat="31.7451000" lon="35.0970600">
<ele>523.950012</ele>
<time>2025-10-14T20:39:04.360Z</time>
</trkpt>
<trkpt lat="31.7449700" lon="35.0972000">
<ele>522.719971</ele>
<time>2025-10-14T20:39:04.360Z</time>
</trkpt>
<trkpt lat="31.7448300" lon="35.0972900">
<ele>522.359985</ele>
<time>2025-10-14T20:39:04.360Z</time>
</trkpt>
<trkpt lat="31.7444700" lon="35.0974100">
<ele>518.399963</ele>
<time>2025-10-14T20:39:04.360Z</time>
</trkpt>
<trkpt lat="31.7442900" lon="35.0974400">
<ele>516.769958</ele>
<time>2025-10-14T20:39:04.360Z</time>
</trkpt>
<trkpt lat="31.7441000" lon="35.0973900">
<ele>515.119995</ele>
<time>2025-10-14T20:39:04.360Z</time>
</trkpt>
<trkpt lat="31.7439300" lon="35.0972700">
<ele>513.470032</ele>
<time>2025-10-14T20:39:04.360Z</time>
</trkpt>
<trkpt lat="31.7437600" lon="35.0971200">
<ele>509.870026</ele>
<time>2025-10-14T20:39:04.360Z</time>
</trkpt>
<trkpt lat="31.7434100" lon="35.0969800">
<ele>501.650024</ele>
<time>2025-10-14T20:39:04.360Z</time>
</trkpt>
<trkpt lat="31.7432500" lon="35.0966200">
<ele>496.980011</ele>
<time>2025-10-14T20:39:04.360Z</time>
</trkpt>
<trkpt lat="31.7431800" lon="35.0965300">
<ele>492.730011</ele>
<time>2025-10-14T20:39:04.360Z</time>
</trkpt>
<trkpt lat="31.7430700" lon="35.0965900">
<ele>488.630005</ele>
<time>2025-10-14T20:39:04.360Z</time>
</trkpt>
<trkpt lat="31.7429400" lon="35.0967700">
<ele>487.250000</ele>
<time>2025-10-14T20:39:04.360Z</time>
</trkpt>
<trkpt lat="31.7427700" lon="35.0969000">
<ele>485.550018</ele>
<time>2025-10-14T20:39:04.360Z</time>
</trkpt>
<trkpt lat="31.7426400" lon="35.0969000">
<ele>486.020020</ele>
<time>2025-10-14T20:39:04.361Z</time>
</trkpt>
<trkpt lat="31.7425400" lon="35.0968000">
<ele>485.300018</ele>
<time>2025-10-14T20:39:04.361Z</time>
</trkpt>
<trkpt lat="31.7425000" lon="35.0965200">
<ele>482.940002</ele>
<time>2025-10-14T20:39:04.361Z</time>
</trkpt>
<trkpt lat="31.7424400" lon="35.0961500">
<ele>479.170013</ele>
<time>2025-10-14T20:39:04.361Z</time>
</trkpt>
<trkpt lat="31.7424700" lon="35.0960200">
<ele>477.869995</ele>
<time>2025-10-14T20:39:04.361Z</time>
</trkpt>
<trkpt lat="31.7424800" lon="35.0959300">
<ele>476.929993</ele>
<time>2025-10-14T20:39:04.361Z</time>
</trkpt>
<trkpt lat="31.7426100" lon="35.0957600">
<ele>474.290009</ele>
<time>2025-10-14T20:39:04.361Z</time>
</trkpt>
<trkpt lat="31.7428000" lon="35.0957000">
<ele>471.479980</ele>
<time>2025-10-14T20:39:04.361Z</time>
</trkpt>
<trkpt lat="31.7429400" lon="35.0956700">
<ele>468.679993</ele>
<time>2025-10-14T20:39:04.361Z</time>
</trkpt>
<trkpt lat="31.7433500" lon="35.0954400">
<ele>459.309998</ele>
<time>2025-10-14T20:39:04.361Z</time>
</trkpt>
<trkpt lat="31.7435800" lon="35.0952100">
<ele>458.410004</ele>
<time>2025-10-14T20:39:04.361Z</time>
</trkpt>
<trkpt lat="31.7438800" lon="35.0950200">
<ele>462.170013</ele>
<time>2025-10-14T20:39:04.361Z</time>
</trkpt>
<trkpt lat="31.7438600" lon="35.0948200">
<ele>460.080017</ele>
<time>2025-10-14T20:39:04.361Z</time>
</trkpt>
<trkpt lat="31.7440200" lon="35.0945200">
<ele>458.379974</ele>
<time>2025-10-14T20:39:04.361Z</time>
</trkpt>
<trkpt lat="31.7441000" lon="35.0944000">
<ele>457.309998</ele>
<time>2025-10-14T20:39:04.361Z</time>
</trkpt>
<trkpt lat="31.7442200" lon="35.0943100">
<ele>455.330017</ele>
<time>2025-10-14T20:39:04.361Z</time>
</trkpt>
<trkpt lat="31.7443600" lon="35.0942700">
<ele>453.470001</ele>
<time>2025-10-14T20:39:04.361Z</time>
</trkpt>
<trkpt lat="31.7447000" lon="35.0941100">
<ele>449.660004</ele>
<time>2025-10-14T20:39:04.361Z</time>
</trkpt>
<trkpt lat="31.7451100" lon="35.0939700">
<ele>451.640015</ele>
<time>2025-10-14T20:39:04.361Z</time>
</trkpt>
<trkpt lat="31.7452200" lon="35.0939500">
<ele>453.040009</ele>
<time>2025-10-14T20:39:04.362Z</time>
</trkpt>
<trkpt lat="31.7455600" lon="35.0939500">
<ele>453.250000</ele>
<time>2025-10-14T20:39:04.362Z</time>
</trkpt>
<trkpt lat="31.7457000" lon="35.0939300">
<ele>453.899994</ele>
<time>2025-10-14T20:39:04.362Z</time>
</trkpt>
<trkpt lat="31.7461100" lon="35.0937300">
<ele>448.870026</ele>
<time>2025-10-14T20:39:04.362Z</time>
</trkpt>
<trkpt lat="31.7462700" lon="35.0936800">
<ele>448.929993</ele>
<time>2025-10-14T20:39:04.362Z</time>
</trkpt>
<trkpt lat="31.7463700" lon="35.0936700">
<ele>449.160004</ele>
<time>2025-10-14T20:39:04.362Z</time>
</trkpt>
<trkpt lat="31.7464600" lon="35.0936900">
<ele>450.159973</ele>
<time>2025-10-14T20:39:04.362Z</time>
</trkpt>
<trkpt lat="31.7465100" lon="35.0937300">
<ele>450.800018</ele>
<time>2025-10-14T20:39:04.362Z</time>
</trkpt>
<trkpt lat="31.7465600" lon="35.0938200">
<ele>451.290009</ele>
<time>2025-10-14T20:39:04.362Z</time>
</trkpt>
<trkpt lat="31.7466000" lon="35.0941000">
<ele>452.829987</ele>
<time>2025-10-14T20:39:04.362Z</time>
</trkpt>
<trkpt lat="31.7466400" lon="35.0942100">
<ele>453.589996</ele>
<time>2025-10-14T20:39:04.362Z</time>
</trkpt>
<trkpt lat="31.7467800" lon="35.0943900">
<ele>453.040009</ele>
<time>2025-10-14T20:39:04.362Z</time>
</trkpt>
<trkpt lat="31.7468600" lon="35.0944700">
<ele>452.129974</ele>
<time>2025-10-14T20:39:04.362Z</time>
</trkpt>
<trkpt lat="31.7470000" lon="35.0945500">
<ele>452.019989</ele>
<time>2025-10-14T20:39:04.362Z</time>
</trkpt>
<trkpt lat="31.7471300" lon="35.0946000">
<ele>454.730011</ele>
<time>2025-10-14T20:39:04.362Z</time>
</trkpt>
<trkpt lat="31.7472400" lon="35.0946100">
<ele>456.020020</ele>
<time>2025-10-14T20:39:04.362Z</time>
</trkpt>
<trkpt lat="31.7475200" lon="35.0945700">
<ele>449.689972</ele>
<time>2025-10-14T20:39:04.362Z</time>
</trkpt>
<trkpt lat="31.7477400" lon="35.0944600">
<ele>447.309998</ele>
<time>2025-10-14T20:39:04.362Z</time>
</trkpt>
<trkpt lat="31.7482000" lon="35.0941000">
<ele>446.600006</ele>
<time>2025-10-14T20:39:04.363Z</time>
</trkpt>
<trkpt lat="31.7490600" lon="35.0936400">
<ele>447.230011</ele>
<time>2025-10-14T20:39:04.363Z</time>
</trkpt>
<trkpt lat="31.7492900" lon="35.0936200">
<ele>449.850006</ele>
<time>2025-10-14T20:39:04.363Z</time>
</trkpt>
<trkpt lat="31.7497700" lon="35.0934400">
<ele>447.070007</ele>
<time>2025-10-14T20:39:04.363Z</time>
</trkpt>
<trkpt lat="31.7500000" lon="35.0933700">
<ele>444.920013</ele>
<time>2025-10-14T20:39:04.363Z</time>
</trkpt>
<trkpt lat="31.7504600" lon="35.0933000">
<ele>443.669983</ele>
<time>2025-10-14T20:39:04.363Z</time>
</trkpt>
<trkpt lat="31.7505900" lon="35.0932500">
<ele>443.070007</ele>
<time>2025-10-14T20:39:04.363Z</time>
</trkpt>
<trkpt lat="31.7507800" lon="35.0931300">
<ele>445.649994</ele>
<time>2025-10-14T20:39:04.363Z</time>
</trkpt>
<trkpt lat="31.7508700" lon="35.0930000">
<ele>445.530029</ele>
<time>2025-10-14T20:39:04.363Z</time>
</trkpt>
<trkpt lat="31.7509600" lon="35.0926600">
<ele>443.750000</ele>
<time>2025-10-14T20:39:04.363Z</time>
</trkpt>
<trkpt lat="31.7509800" lon="35.0924800">
<ele>443.180023</ele>
<time>2025-10-14T20:39:04.363Z</time>
</trkpt>
<trkpt lat="31.7509800" lon="35.0922200">
<ele>442.639984</ele>
<time>2025-10-14T20:39:04.363Z</time>
</trkpt>
<trkpt lat="31.7509300" lon="35.0920500">
<ele>441.959991</ele>
<time>2025-10-14T20:39:04.363Z</time>
</trkpt>
<trkpt lat="31.7507100" lon="35.0917100">
<ele>442.339996</ele>
<time>2025-10-14T20:39:04.363Z</time>
</trkpt>
<trkpt lat="31.7506100" lon="35.0914800">
<ele>443.200012</ele>
<time>2025-10-14T20:39:04.363Z</time>
</trkpt>
<trkpt lat="31.7505600" lon="35.0912700">
<ele>443.050018</ele>
<time>2025-10-14T20:39:04.363Z</time>
</trkpt>
<trkpt lat="31.7504800" lon="35.0907300">
<ele>443.170013</ele>
<time>2025-10-14T20:39:04.364Z</time>
</trkpt>
<trkpt lat="31.7504700" lon="35.0904100">
<ele>443.200012</ele>
<time>2025-10-14T20:39:04.364Z</time>
</trkpt>
<trkpt lat="31.7505100" lon="35.0901400">
<ele>444.750000</ele>
<time>2025-10-14T20:39:04.364Z</time>
</trkpt>
<trkpt lat="31.7505600" lon="35.0899800">
<ele>446.059998</ele>
<time>2025-10-14T20:39:04.364Z</time>
</trkpt>
<trkpt lat="31.7507500" lon="35.0896200">
<ele>446.439972</ele>
<time>2025-10-14T20:39:04.364Z</time>
</trkpt>
<trkpt lat="31.7508000" lon="35.0894400">
<ele>445.440002</ele>
<time>2025-10-14T20:39:04.364Z</time>
</trkpt>
<trkpt lat="31.7508400" lon="35.0892100">
<ele>442.029999</ele>
<time>2025-10-14T20:39:04.364Z</time>
</trkpt>
<trkpt lat="31.7508600" lon="35.0889900">
<ele>441.359985</ele>
<time>2025-10-14T20:39:04.364Z</time>
</trkpt>
<trkpt lat="31.7508600" lon="35.0888100">
<ele>439.339996</ele>
<time>2025-10-14T20:39:04.364Z</time>
</trkpt>
<trkpt lat="31.7508300" lon="35.0885000">
<ele>435.200012</ele>
<time>2025-10-14T20:39:04.364Z</time>
</trkpt>
<trkpt lat="31.7507400" lon="35.0883200">
<ele>436.570007</ele>
<time>2025-10-14T20:39:04.364Z</time>
</trkpt>
<trkpt lat="31.7504900" lon="35.0879900">
<ele>438.540009</ele>
<time>2025-10-14T20:39:04.364Z</time>
</trkpt>
<trkpt lat="31.7502100" lon="35.0874900">
<ele>438.359985</ele>
<time>2025-10-14T20:39:04.364Z</time>
</trkpt>
<trkpt lat="31.7500500" lon="35.0871200">
<ele>436.309998</ele>
<time>2025-10-14T20:39:04.364Z</time>
</trkpt>
<trkpt lat="31.7498100" lon="35.0866900">
<ele>432.520020</ele>
<time>2025-10-14T20:39:04.364Z</time>
</trkpt>
<trkpt lat="31.7497500" lon="35.0865300">
<ele>431.889984</ele>
<time>2025-10-14T20:39:04.364Z</time>
</trkpt>
<trkpt lat="31.7497400" lon="35.0864300">
<ele>432.059998</ele>
<time>2025-10-14T20:39:04.364Z</time>
</trkpt>
<trkpt lat="31.7497600" lon="35.0862900">
<ele>432.359985</ele>
<time>2025-10-14T20:39:04.365Z</time>
</trkpt>
<trkpt lat="31.7498200" lon="35.0861400">
<ele>432.739990</ele>
<time>2025-10-14T20:39:04.365Z</time>
</trkpt>
<trkpt lat="31.7498900" lon="35.0860500">
<ele>433.160004</ele>
<time>2025-10-14T20:39:04.365Z</time>
</trkpt>
<trkpt lat="31.7504200" lon="35.0855900">
<ele>428.230011</ele>
<time>2025-10-14T20:39:04.365Z</time>
</trkpt>
<trkpt lat="31.7505100" lon="35.0855500">
<ele>429.339996</ele>
<time>2025-10-14T20:39:04.365Z</time>
</trkpt>
<trkpt lat="31.7506300" lon="35.0855300">
<ele>429.040009</ele>
<time>2025-10-14T20:39:04.365Z</time>
</trkpt>
<trkpt lat="31.7513800" lon="35.0856100">
<ele>439.820007</ele>
<time>2025-10-14T20:39:04.365Z</time>
</trkpt>
<trkpt lat="31.7513700" lon="35.0856100">
<ele>439.889984</ele>
<time>2025-10-14T20:39:04.365Z</time>
</trkpt>
<trkpt lat="31.7518400" lon="35.0856300">
<ele>438.859985</ele>
<time>2025-10-14T20:39:04.365Z</time>
</trkpt>
<trkpt lat="31.7522000" lon="35.0855900">
<ele>435.179993</ele>
<time>2025-10-14T20:39:04.365Z</time>
</trkpt>
<trkpt lat="31.7528800" lon="35.0855900">
<ele>431.480011</ele>
<time>2025-10-14T20:39:04.365Z</time>
</trkpt>
<trkpt lat="31.7531300" lon="35.0856400">
<ele>431.779999</ele>
<time>2025-10-14T20:39:04.365Z</time>
</trkpt>
<trkpt lat="31.7532500" lon="35.0857000">
<ele>430.920013</ele>
<time>2025-10-14T20:39:04.365Z</time>
</trkpt>
<trkpt lat="31.7533400" lon="35.0857800">
<ele>429.770020</ele>
<time>2025-10-14T20:39:04.365Z</time>
</trkpt>
<trkpt lat="31.7534500" lon="35.0859200">
<ele>428.059998</ele>
<time>2025-10-14T20:39:04.365Z</time>
</trkpt>
<trkpt lat="31.7535100" lon="35.0860400">
<ele>426.470001</ele>
<time>2025-10-14T20:39:04.365Z</time>
</trkpt>
<trkpt lat="31.7537100" lon="35.0868100">
<ele>426.600006</ele>
<time>2025-10-14T20:39:04.365Z</time>
</trkpt>
<trkpt lat="31.7538900" lon="35.0877300">
<ele>424.660004</ele>
<time>2025-10-14T20:39:04.365Z</time>
</trkpt>
<trkpt lat="31.7539800" lon="35.0879800">
<ele>424.429993</ele>
<time>2025-10-14T20:39:04.365Z</time>
</trkpt>
<trkpt lat="31.7541000" lon="35.0882100">
<ele>425.279999</ele>
<time>2025-10-14T20:39:04.365Z</time>
</trkpt>
<trkpt lat="31.7542800" lon="35.0884600">
<ele>429.630005</ele>
<time>2025-10-14T20:39:04.366Z</time>
</trkpt>
<trkpt lat="31.7544200" lon="35.0885900">
<ele>431.029999</ele>
<time>2025-10-14T20:39:04.366Z</time>
</trkpt>
<trkpt lat="31.7548300" lon="35.0888100">
<ele>427.230011</ele>
<time>2025-10-14T20:39:04.366Z</time>
</trkpt>
<trkpt lat="31.7552100" lon="35.0889800">
<ele>429.000000</ele>
<time>2025-10-14T20:39:04.366Z</time>
</trkpt>
<trkpt lat="31.7553100" lon="35.0890000">
<ele>429.200012</ele>
<time>2025-10-14T20:39:04.366Z</time>
</trkpt>
<trkpt lat="31.7556400" lon="35.0889700">
<ele>429.489990</ele>
<time>2025-10-14T20:39:04.366Z</time>
</trkpt>
<trkpt lat="31.7557300" lon="35.0889900">
<ele>428.710022</ele>
<time>2025-10-14T20:39:04.366Z</time>
</trkpt>
<trkpt lat="31.7558000" lon="35.0890300">
<ele>428.040009</ele>
<time>2025-10-14T20:39:04.366Z</time>
</trkpt>
<trkpt lat="31.7560700" lon="35.0892800">
<ele>428.730011</ele>
<time>2025-10-14T20:39:04.366Z</time>
</trkpt>
<trkpt lat="31.7563700" lon="35.0895100">
<ele>423.180023</ele>
<time>2025-10-14T20:39:04.366Z</time>
</trkpt>
<trkpt lat="31.7565600" lon="35.0896000">
<ele>418.339996</ele>
<time>2025-10-14T20:39:04.366Z</time>
</trkpt>
<trkpt lat="31.7566900" lon="35.0896300">
<ele>414.450012</ele>
<time>2025-10-14T20:39:04.366Z</time>
</trkpt>
<trkpt lat="31.7570400" lon="35.0896200">
<ele>413.049988</ele>
<time>2025-10-14T20:39:04.366Z</time>
</trkpt>
<trkpt lat="31.7572400" lon="35.0895500">
<ele>414.529999</ele>
<time>2025-10-14T20:39:04.366Z</time>
</trkpt>
<trkpt lat="31.7574600" lon="35.0893800">
<ele>410.380005</ele>
<time>2025-10-14T20:39:04.366Z</time>
</trkpt>
<trkpt lat="31.7575500" lon="35.0893300">
<ele>409.589996</ele>
<time>2025-10-14T20:39:04.366Z</time>
</trkpt>
<trkpt lat="31.7577100" lon="35.0892800">
<ele>409.409973</ele>
<time>2025-10-14T20:39:04.366Z</time>
</trkpt>
<trkpt lat="31.7580200" lon="35.0892300">
<ele>410.100006</ele>
<time>2025-10-14T20:39:04.367Z</time>
</trkpt>
<trkpt lat="31.7581800" lon="35.0892400">
<ele>411.070007</ele>
<time>2025-10-14T20:39:04.367Z</time>
</trkpt>
<trkpt lat="31.7581300" lon="35.0895500">
<ele>412.730011</ele>
<time>2025-10-14T20:39:04.367Z</time>
</trkpt>
<trkpt lat="31.7582000" lon="35.0895800">
<ele>413.800018</ele>
<time>2025-10-14T20:39:04.367Z</time>
</trkpt>
<trkpt lat="31.7582500" lon="35.0895600">
<ele>414.339996</ele>
<time>2025-10-14T20:39:04.367Z</time>
</trkpt>
<trkpt lat="31.7582800" lon="35.0894900">
<ele>414.429993</ele>
<time>2025-10-14T20:39:04.367Z</time>
</trkpt>
<trkpt lat="31.7583400" lon="35.0891800">
<ele>411.330017</ele>
<time>2025-10-14T20:39:04.367Z</time>
</trkpt>
<trkpt lat="31.7586200" lon="35.0886100">
<ele>414.029999</ele>
<time>2025-10-14T20:39:04.367Z</time>
</trkpt>
<trkpt lat="31.7586700" lon="35.0883300">
<ele>413.420013</ele>
<time>2025-10-14T20:39:04.367Z</time>
</trkpt>
<trkpt lat="31.7583700" lon="35.0875600">
<ele>413.920013</ele>
<time>2025-10-14T20:39:04.367Z</time>
</trkpt>
<trkpt lat="31.7581400" lon="35.0871100">
<ele>415.109985</ele>
<time>2025-10-14T20:39:04.367Z</time>
</trkpt>
<trkpt lat="31.7573000" lon="35.0857500">
<ele>418.200012</ele>
<time>2025-10-14T20:39:04.367Z</time>
</trkpt>
<trkpt lat="31.7566000" lon="35.0847600">
<ele>412.350006</ele>
<time>2025-10-14T20:39:04.367Z</time>
</trkpt>
<trkpt lat="31.7564000" lon="35.0834200">
<ele>406.820007</ele>
<time>2025-10-14T20:39:04.367Z</time>
</trkpt>
<trkpt lat="31.7563100" lon="35.0831500">
<ele>405.110016</ele>
<time>2025-10-14T20:39:04.367Z</time>
</trkpt>
<trkpt lat="31.7563200" lon="35.0830500">
<ele>404.750000</ele>
<time>2025-10-14T20:39:04.367Z</time>
</trkpt>
<trkpt lat="31.7568300" lon="35.0824500">
<ele>409.140015</ele>
<time>2025-10-14T20:39:04.367Z</time>
</trkpt>
<trkpt lat="31.7571600" lon="35.0819500">
<ele>409.400024</ele>
<time>2025-10-14T20:39:04.367Z</time>
</trkpt>
<trkpt lat="31.7574000" lon="35.0817600">
<ele>415.569977</ele>
<time>2025-10-14T20:39:04.367Z</time>
</trkpt>
<trkpt lat="31.7575600" lon="35.0816600">
<ele>418.540009</ele>
<time>2025-10-14T20:39:04.368Z</time>
</trkpt>
<trkpt lat="31.7577000" lon="35.0816100">
<ele>420.170013</ele>
<time>2025-10-14T20:39:04.368Z</time>
</trkpt>
<trkpt lat="31.7580500" lon="35.0815200">
<ele>422.100006</ele>
<time>2025-10-14T20:39:04.368Z</time>
</trkpt>
<trkpt lat="31.7582500" lon="35.0814200">
<ele>422.700012</ele>
<time>2025-10-14T20:39:04.368Z</time>
</trkpt>
<trkpt lat="31.7585100" lon="35.0811800">
<ele>427.590027</ele>
<time>2025-10-14T20:39:04.368Z</time>
</trkpt>
<trkpt lat="31.7587500" lon="35.0809900">
<ele>434.309998</ele>
<time>2025-10-14T20:39:04.368Z</time>
</trkpt>
<trkpt lat="31.7590000" lon="35.0807300">
<ele>439.880005</ele>
<time>2025-10-14T20:39:04.368Z</time>
</trkpt>
<trkpt lat="31.7591300" lon="35.0809000">
<ele>442.730011</ele>
<time>2025-10-14T20:39:04.368Z</time>
</trkpt>
<trkpt lat="31.7594300" lon="35.0812300">
<ele>443.080017</ele>
<time>2025-10-14T20:39:04.368Z</time>
</trkpt>
<trkpt lat="31.7595600" lon="35.0814100">
<ele>444.690002</ele>
<time>2025-10-14T20:39:04.368Z</time>
</trkpt>
<trkpt lat="31.7596200" lon="35.0815500">
<ele>447.169983</ele>
<time>2025-10-14T20:39:04.368Z</time>
</trkpt>
<trkpt lat="31.7596300" lon="35.0816700">
<ele>448.390015</ele>
<time>2025-10-14T20:39:04.368Z</time>
</trkpt>
<trkpt lat="31.7595400" lon="35.0818100">
<ele>449.119995</ele>
<time>2025-10-14T20:39:04.368Z</time>
</trkpt>
<trkpt lat="31.7593300" lon="35.0820800">
<ele>450.800018</ele>
<time>2025-10-14T20:39:04.368Z</time>
</trkpt>
<trkpt lat="31.7591500" lon="35.0823500">
<ele>452.059998</ele>
<time>2025-10-14T20:39:04.368Z</time>
</trkpt>
<trkpt lat="31.7593300" lon="35.0823500">
<ele>455.779999</ele>
<time>2025-10-14T20:39:04.368Z</time>
</trkpt>
<trkpt lat="31.7594300" lon="35.0824200">
<ele>459.649994</ele>
<time>2025-10-14T20:39:04.368Z</time>
</trkpt>
<trkpt lat="31.7596900" lon="35.0827100">
<ele>464.440002</ele>
<time>2025-10-14T20:39:04.369Z</time>
</trkpt>
<trkpt lat="31.7599200" lon="35.0828400">
<ele>466.609985</ele>
<time>2025-10-14T20:39:04.369Z</time>
</trkpt>
<trkpt lat="31.7600900" lon="35.0828800">
<ele>467.709991</ele>
<time>2025-10-14T20:39:04.369Z</time>
</trkpt>
<trkpt lat="31.7607600" lon="35.0827200">
<ele>469.899994</ele>
<time>2025-10-14T20:39:04.369Z</time>
</trkpt>
<trkpt lat="31.7609200" lon="35.0825900">
<ele>472.049988</ele>
<time>2025-10-14T20:39:04.369Z</time>
</trkpt>
<trkpt lat="31.7609300" lon="35.0825100">
<ele>472.149994</ele>
<time>2025-10-14T20:39:04.369Z</time>
</trkpt>
<trkpt lat="31.7609100" lon="35.0821800">
<ele>472.940002</ele>
<time>2025-10-14T20:39:04.369Z</time>
</trkpt>
<trkpt lat="31.7609700" lon="35.0820400">
<ele>475.260010</ele>
<time>2025-10-14T20:39:04.369Z</time>
</trkpt>
<trkpt lat="31.7609100" lon="35.0816500">
<ele>475.729980</ele>
<time>2025-10-14T20:39:04.369Z</time>
</trkpt>
<trkpt lat="31.7610200" lon="35.0819500">
<ele>476.699982</ele>
<time>2025-10-14T20:39:04.369Z</time>
</trkpt>
<trkpt lat="31.7611100" lon="35.0820300">
<ele>479.279999</ele>
<time>2025-10-14T20:39:04.369Z</time>
</trkpt>
<trkpt lat="31.7612100" lon="35.0821500">
<ele>482.320007</ele>
<time>2025-10-14T20:39:04.369Z</time>
</trkpt>
<trkpt lat="31.7614600" lon="35.0826700">
<ele>484.510010</ele>
<time>2025-10-14T20:39:04.369Z</time>
</trkpt>
<trkpt lat="31.7614800" lon="35.0827600">
<ele>484.140015</ele>
<time>2025-10-14T20:39:04.369Z</time>
</trkpt>
<trkpt lat="31.7614800" lon="35.0828400">
<ele>483.750000</ele>
<time>2025-10-14T20:39:04.369Z</time>
</trkpt>
<trkpt lat="31.7614400" lon="35.0829400">
<ele>482.779968</ele>
<time>2025-10-14T20:39:04.369Z</time>
</trkpt>
<trkpt lat="31.7613300" lon="35.0831300">
<ele>481.750031</ele>
<time>2025-10-14T20:39:04.369Z</time>
</trkpt>
<trkpt lat="31.7612600" lon="35.0833400">
<ele>482.569977</ele>
<time>2025-10-14T20:39:04.369Z</time>
</trkpt>
<trkpt lat="31.7612300" lon="35.0834900">
<ele>483.309998</ele>
<time>2025-10-14T20:39:04.370Z</time>
</trkpt>
<trkpt lat="31.7612600" lon="35.0837200">
<ele>484.970001</ele>
<time>2025-10-14T20:39:04.370Z</time>
</trkpt>
<trkpt lat="31.7613600" lon="35.0840000">
<ele>486.379974</ele>
<time>2025-10-14T20:39:04.370Z</time>
</trkpt>
<trkpt lat="31.7615400" lon="35.0843600">
<ele>489.600006</ele>
<time>2025-10-14T20:39:04.370Z</time>
</trkpt>
<trkpt lat="31.7617700" lon="35.0847800">
<ele>493.290009</ele>
<time>2025-10-14T20:39:04.370Z</time>
</trkpt>
<trkpt lat="31.7621000" lon="35.0853000">
<ele>496.529999</ele>
<time>2025-10-14T20:39:04.370Z</time>
</trkpt>
<trkpt lat="31.7621500" lon="35.0854200">
<ele>496.439972</ele>
<time>2025-10-14T20:39:04.370Z</time>
</trkpt>
<trkpt lat="31.7621800" lon="35.0855800">
<ele>496.309998</ele>
<time>2025-10-14T20:39:04.370Z</time>
</trkpt>
<trkpt lat="31.7621600" lon="35.0859300">
<ele>497.000000</ele>
<time>2025-10-14T20:39:04.370Z</time>
</trkpt>
<trkpt lat="31.7621900" lon="35.0860600">
<ele>498.119995</ele>
<time>2025-10-14T20:39:04.370Z</time>
</trkpt>
<trkpt lat="31.7623800" lon="35.0864000">
<ele>502.790009</ele>
<time>2025-10-14T20:39:04.370Z</time>
</trkpt>
<trkpt lat="31.7626000" lon="35.0866400">
<ele>504.690002</ele>
<time>2025-10-14T20:39:04.370Z</time>
</trkpt>
<trkpt lat="31.7630300" lon="35.0870400">
<ele>505.230011</ele>
<time>2025-10-14T20:39:04.370Z</time>
</trkpt>
<trkpt lat="31.7631600" lon="35.0871800">
<ele>504.650024</ele>
<time>2025-10-14T20:39:04.370Z</time>
</trkpt>
<trkpt lat="31.7632200" lon="35.0873100">
<ele>504.559998</ele>
<time>2025-10-14T20:39:04.370Z</time>
</trkpt>
<trkpt lat="31.7632100" lon="35.0874100">
<ele>504.860016</ele>
<time>2025-10-14T20:39:04.370Z</time>
</trkpt>
<trkpt lat="31.7631900" lon="35.0874500">
<ele>504.760010</ele>
<time>2025-10-14T20:39:04.370Z</time>
</trkpt>
<trkpt lat="31.7631300" lon="35.0874900">
<ele>504.050018</ele>
<time>2025-10-14T20:39:04.371Z</time>
</trkpt>
<trkpt lat="31.7630100" lon="35.0875300">
<ele>503.270020</ele>
<time>2025-10-14T20:39:04.371Z</time>
</trkpt>
<trkpt lat="31.7625700" lon="35.0875800">
<ele>492.239990</ele>
<time>2025-10-14T20:39:04.371Z</time>
</trkpt>
<trkpt lat="31.7622100" lon="35.0876700">
<ele>484.199982</ele>
<time>2025-10-14T20:39:04.371Z</time>
</trkpt>
<trkpt lat="31.7617900" lon="35.0878500">
<ele>488.450012</ele>
<time>2025-10-14T20:39:04.371Z</time>
</trkpt>
<trkpt lat="31.7616500" lon="35.0879600">
<ele>488.989990</ele>
<time>2025-10-14T20:39:04.371Z</time>
</trkpt>
<trkpt lat="31.7615600" lon="35.0880600">
<ele>490.520020</ele>
<time>2025-10-14T20:39:04.371Z</time>
</trkpt>
<trkpt lat="31.7614300" lon="35.0882500">
<ele>495.960022</ele>
<time>2025-10-14T20:39:04.371Z</time>
</trkpt>
<trkpt lat="31.7612000" lon="35.0887100">
<ele>502.920013</ele>
<time>2025-10-14T20:39:04.371Z</time>
</trkpt>
<trkpt lat="31.7610700" lon="35.0890900">
<ele>504.610016</ele>
<time>2025-10-14T20:39:04.371Z</time>
</trkpt>
<trkpt lat="31.7607500" lon="35.0902800">
<ele>511.619995</ele>
<time>2025-10-14T20:39:04.371Z</time>
</trkpt>
<trkpt lat="31.7607400" lon="35.0903800">
<ele>512.169983</ele>
<time>2025-10-14T20:39:04.371Z</time>
</trkpt>
<trkpt lat="31.7607600" lon="35.0905500">
<ele>514.109985</ele>
<time>2025-10-14T20:39:04.371Z</time>
</trkpt>
<trkpt lat="31.7608200" lon="35.0906900">
<ele>515.200012</ele>
<time>2025-10-14T20:39:04.371Z</time>
</trkpt>
<trkpt lat="31.7608900" lon="35.0908000">
<ele>517.390015</ele>
<time>2025-10-14T20:39:04.371Z</time>
</trkpt>
<trkpt lat="31.7610200" lon="35.0909400">
<ele>519.039978</ele>
<time>2025-10-14T20:39:04.371Z</time>
</trkpt>
<trkpt lat="31.7617900" lon="35.0915600">
<ele>520.599976</ele>
<time>2025-10-14T20:39:04.371Z</time>
</trkpt>
<trkpt lat="31.7623100" lon="35.0918800">
<ele>523.940002</ele>
<time>2025-10-14T20:39:04.371Z</time>
</trkpt>
<trkpt lat="31.7625700" lon="35.0920200">
<ele>520.309998</ele>
<time>2025-10-14T20:39:04.372Z</time>
</trkpt>
<trkpt lat="31.7626800" lon="35.0921100">
<ele>521.630005</ele>
<time>2025-10-14T20:39:04.372Z</time>
</trkpt>
<trkpt lat="31.7627300" lon="35.0922100">
<ele>521.900024</ele>
<time>2025-10-14T20:39:04.372Z</time>
</trkpt>
<trkpt lat="31.7627800" lon="35.0927800">
<ele>519.089966</ele>
<time>2025-10-14T20:39:04.372Z</time>
</trkpt>
<trkpt lat="31.7629700" lon="35.0934000">
<ele>523.919983</ele>
<time>2025-10-14T20:39:04.372Z</time>
</trkpt>
<trkpt lat="31.7629900" lon="35.0935500">
<ele>524.640015</ele>
<time>2025-10-14T20:39:04.372Z</time>
</trkpt>
<trkpt lat="31.7629500" lon="35.0939800">
<ele>525.330017</ele>
<time>2025-10-14T20:39:04.372Z</time>
</trkpt>
<trkpt lat="31.7629600" lon="35.0942800">
<ele>526.549988</ele>
<time>2025-10-14T20:39:04.372Z</time>
</trkpt>
<trkpt lat="31.7629900" lon="35.0944200">
<ele>527.519958</ele>
<time>2025-10-14T20:39:04.372Z</time>
</trkpt>
<trkpt lat="31.7630700" lon="35.0946000">
<ele>527.200012</ele>
<time>2025-10-14T20:39:04.372Z</time>
</trkpt>
<trkpt lat="31.7632500" lon="35.0948600">
<ele>528.910034</ele>
<time>2025-10-14T20:39:04.372Z</time>
</trkpt>
<trkpt lat="31.7636000" lon="35.0952600">
<ele>529.529968</ele>
<time>2025-10-14T20:39:04.372Z</time>
</trkpt>
<trkpt lat="31.7644900" lon="35.0958900">
<ele>538.909973</ele>
<time>2025-10-14T20:39:04.372Z</time>
</trkpt>
<trkpt lat="31.7645900" lon="35.0959800">
<ele>539.260010</ele>
<time>2025-10-14T20:39:04.372Z</time>
</trkpt>
<trkpt lat="31.7646700" lon="35.0961100">
<ele>539.260010</ele>
<time>2025-10-14T20:39:04.372Z</time>
</trkpt>
<trkpt lat="31.7646900" lon="35.0962400">
<ele>539.540039</ele>
<time>2025-10-14T20:39:04.372Z</time>
</trkpt>
<trkpt lat="31.7646700" lon="35.0963800">
<ele>539.250000</ele>
<time>2025-10-14T20:39:04.372Z</time>
</trkpt>
<trkpt lat="31.7645100" lon="35.0970700">
<ele>540.159973</ele>
<time>2025-10-14T20:39:04.372Z</time>
</trkpt>
<trkpt lat="31.7644800" lon="35.0972700">
<ele>539.830017</ele>
<time>2025-10-14T20:39:04.372Z</time>
</trkpt>
<trkpt lat="31.7644800" lon="35.0975600">
<ele>538.040039</ele>
<time>2025-10-14T20:39:04.372Z</time>
</trkpt>
<trkpt lat="31.7645100" lon="35.0978800">
<ele>537.839966</ele>
<time>2025-10-14T20:39:04.372Z</time>
</trkpt>
<trkpt lat="31.7645000" lon="35.0982700">
<ele>539.159973</ele>
<time>2025-10-14T20:39:04.372Z</time>
</trkpt>
<trkpt lat="31.7644700" lon="35.0986700">
<ele>541.290039</ele>
<time>2025-10-14T20:39:04.373Z</time>
</trkpt>
<trkpt lat="31.7645600" lon="35.0990200">
<ele>544.349976</ele>
<time>2025-10-14T20:39:04.373Z</time>
</trkpt>
<trkpt lat="31.7646400" lon="35.0991100">
<ele>544.369995</ele>
<time>2025-10-14T20:39:04.373Z</time>
</trkpt>
<trkpt lat="31.7649900" lon="35.0993300">
<ele>540.619995</ele>
<time>2025-10-14T20:39:04.373Z</time>
</trkpt>
<trkpt lat="31.7657300" lon="35.0995800">
<ele>546.580017</ele>
<time>2025-10-14T20:39:04.373Z</time>
</trkpt>
<trkpt lat="31.7661100" lon="35.0997800">
<ele>543.959961</ele>
<time>2025-10-14T20:39:04.373Z</time>
</trkpt>
<trkpt lat="31.7663300" lon="35.0998200">
<ele>542.729980</ele>
<time>2025-10-14T20:39:04.373Z</time>
</trkpt>
<trkpt lat="31.7669000" lon="35.0998300">
<ele>544.909973</ele>
<time>2025-10-14T20:39:04.373Z</time>
</trkpt>
<trkpt lat="31.7674500" lon="35.0998900">
<ele>557.220032</ele>
<time>2025-10-14T20:39:04.373Z</time>
</trkpt>
<trkpt lat="31.7677100" lon="35.0998000">
<ele>561.729980</ele>
<time>2025-10-14T20:39:04.373Z</time>
</trkpt>
<trkpt lat="31.7679300" lon="35.0995700">
<ele>562.739990</ele>
<time>2025-10-14T20:39:04.373Z</time>
</trkpt>
<trkpt lat="31.7682300" lon="35.0993500">
<ele>564.520020</ele>
<time>2025-10-14T20:39:04.373Z</time>
</trkpt>
<trkpt lat="31.7692100" lon="35.0990600">
<ele>563.510010</ele>
<time>2025-10-14T20:39:04.373Z</time>
</trkpt>
<trkpt lat="31.7706400" lon="35.0990400">
<ele>576.220032</ele>
<time>2025-10-14T20:39:04.373Z</time>
</trkpt>
<trkpt lat="31.7708400" lon="35.0989600">
<ele>579.000000</ele>
<time>2025-10-14T20:39:04.373Z</time>
</trkpt>
<trkpt lat="31.7710900" lon="35.0987900">
<ele>580.820007</ele>
<time>2025-10-14T20:39:04.373Z</time>
</trkpt>
<trkpt lat="31.7714800" lon="35.0982400">
<ele>581.440002</ele>
<time>2025-10-14T20:39:04.373Z</time>
</trkpt>
<trkpt lat="31.7717100" lon="35.0978400">
<ele>584.070007</ele>
<time>2025-10-14T20:39:04.373Z</time>
</trkpt>
<trkpt lat="31.7720500" lon="35.0973800">
<ele>584.109985</ele>
<time>2025-10-14T20:39:04.373Z</time>
</trkpt>
<trkpt lat="31.7723500" lon="35.0969000">
<ele>583.549988</ele>
<time>2025-10-14T20:39:04.373Z</time>
</trkpt>
<trkpt lat="31.7724100" lon="35.0968400">
<ele>584.270020</ele>
<time>2025-10-14T20:39:04.373Z</time>
</trkpt>
<trkpt lat="31.7724600" lon="35.0968200">
<ele>584.700012</ele>
<time>2025-10-14T20:39:04.373Z</time>
</trkpt>
<trkpt lat="31.7725900" lon="35.0969300">
<ele>588.210022</ele>
<time>2025-10-14T20:39:04.373Z</time>
</trkpt>
<trkpt lat="31.7726300" lon="35.0970400">
<ele>590.049988</ele>
<time>2025-10-14T20:39:04.373Z</time>
</trkpt>
<trkpt lat="31.7726700" lon="35.0977700">
<ele>594.830017</ele>
<time>2025-10-14T20:39:04.373Z</time>
</trkpt>
<trkpt lat="31.7726500" lon="35.0982500">
<ele>594.400024</ele>
<time>2025-10-14T20:39:04.374Z</time>
</trkpt>
<trkpt lat="31.7726800" lon="35.0986000">
<ele>594.859985</ele>
<time>2025-10-14T20:39:04.374Z</time>
</trkpt>
<trkpt lat="31.7728000" lon="35.0989300">
<ele>597.989990</ele>
<time>2025-10-14T20:39:04.374Z</time>
</trkpt>
<trkpt lat="31.7729900" lon="35.0992900">
<ele>597.020020</ele>
<time>2025-10-14T20:39:04.374Z</time>
</trkpt>
<trkpt lat="31.7730800" lon="35.0994100">
<ele>597.820007</ele>
<time>2025-10-14T20:39:04.374Z</time>
</trkpt>
<trkpt lat="31.7734100" lon="35.0995700">
<ele>597.229980</ele>
<time>2025-10-14T20:39:04.374Z</time>
</trkpt>
<trkpt lat="31.7736000" lon="35.0995700">
<ele>601.149963</ele>
<time>2025-10-14T20:39:04.374Z</time>
</trkpt>
<trkpt lat="31.7740300" lon="35.0995000">
<ele>605.649963</ele>
<time>2025-10-14T20:39:04.374Z</time>
</trkpt>
<trkpt lat="31.7741500" lon="35.0995400">
<ele>607.950012</ele>
<time>2025-10-14T20:39:04.374Z</time>
</trkpt>
<trkpt lat="31.7742200" lon="35.0996500">
<ele>609.250000</ele>
<time>2025-10-14T20:39:04.374Z</time>
</trkpt>
<trkpt lat="31.7742500" lon="35.0999800">
<ele>610.720032</ele>
<time>2025-10-14T20:39:04.374Z</time>
</trkpt>
<trkpt lat="31.7743000" lon="35.1001600">
<ele>613.010010</ele>
<time>2025-10-14T20:39:04.374Z</time>
</trkpt>
<trkpt lat="31.7744200" lon="35.1003600">
<ele>616.549988</ele>
<time>2025-10-14T20:39:04.374Z</time>
</trkpt>
<trkpt lat="31.7749200" lon="35.1007400">
<ele>622.919983</ele>
<time>2025-10-14T20:39:04.374Z</time>
</trkpt>
<trkpt lat="31.7749100" lon="35.1007400">
<ele>622.820007</ele>
<time>2025-10-14T20:39:04.374Z</time>
</trkpt>
<trkpt lat="31.7751400" lon="35.1009000">
<ele>624.390015</ele>
<time>2025-10-14T20:39:04.374Z</time>
</trkpt>
<trkpt lat="31.7758000" lon="35.1012500">
<ele>617.459961</ele>
<time>2025-10-14T20:39:04.374Z</time>
</trkpt>
<trkpt lat="31.7763200" lon="35.1013500">
<ele>609.070007</ele>
<time>2025-10-14T20:39:04.374Z</time>
</trkpt>
<trkpt lat="31.7767200" lon="35.1013200">
<ele>609.409973</ele>
<time>2025-10-14T20:39:04.374Z</time>
</trkpt>
<trkpt lat="31.7773600" lon="35.1011600">
<ele>623.589966</ele>
<time>2025-10-14T20:39:04.374Z</time>
</trkpt>
<trkpt lat="31.7778400" lon="35.1011500">
<ele>622.349976</ele>
<time>2025-10-14T20:39:04.374Z</time>
</trkpt>
<trkpt lat="31.7780400" lon="35.1012400">
<ele>624.750061</ele>
<time>2025-10-14T20:39:04.374Z</time>
</trkpt>
<trkpt lat="31.7781100" lon="35.1013700">
<ele>626.200012</ele>
<time>2025-10-14T20:39:04.374Z</time>
</trkpt>
<trkpt lat="31.7781300" lon="35.1015300">
<ele>626.099976</ele>
<time>2025-10-14T20:39:04.374Z</time>
</trkpt>
<trkpt lat="31.7780800" lon="35.1026600">
<ele>629.669983</ele>
<time>2025-10-14T20:39:04.374Z</time>
</trkpt>
<trkpt lat="31.7781800" lon="35.1029000">
<ele>632.039978</ele>
<time>2025-10-14T20:39:04.375Z</time>
</trkpt>
<trkpt lat="31.7786400" lon="35.1037200">
<ele>633.019958</ele>
<time>2025-10-14T20:39:04.375Z</time>
</trkpt>
<trkpt lat="31.7786900" lon="35.1039000">
<ele>633.190002</ele>
<time>2025-10-14T20:39:04.375Z</time>
</trkpt>
<trkpt lat="31.7786600" lon="35.1040600">
<ele>633.719971</ele>
<time>2025-10-14T20:39:04.375Z</time>
</trkpt>
<trkpt lat="31.7783900" lon="35.1046100">
<ele>634.080017</ele>
<time>2025-10-14T20:39:04.375Z</time>
</trkpt>
<trkpt lat="31.7783400" lon="35.1048700">
<ele>637.239990</ele>
<time>2025-10-14T20:39:04.375Z</time>
</trkpt>
<trkpt lat="31.7783600" lon="35.1053700">
<ele>642.049988</ele>
<time>2025-10-14T20:39:04.375Z</time>
</trkpt>
<trkpt lat="31.7784200" lon="35.1057500">
<ele>645.169983</ele>
<time>2025-10-14T20:39:04.375Z</time>
</trkpt>
<trkpt lat="31.7785200" lon="35.1059000">
<ele>647.440002</ele>
<time>2025-10-14T20:39:04.375Z</time>
</trkpt>
<trkpt lat="31.7789400" lon="35.1061500">
<ele>653.890015</ele>
<time>2025-10-14T20:39:04.375Z</time>
</trkpt>
<trkpt lat="31.7790500" lon="35.1063000">
<ele>655.509949</ele>
<time>2025-10-14T20:39:04.375Z</time>
</trkpt>
<trkpt lat="31.7791100" lon="35.1065100">
<ele>656.179993</ele>
<time>2025-10-14T20:39:04.375Z</time>
</trkpt>
<trkpt lat="31.7791100" lon="35.1072900">
<ele>657.070007</ele>
<time>2025-10-14T20:39:04.375Z</time>
</trkpt>
<trkpt lat="31.7789800" lon="35.1077800">
<ele>658.000000</ele>
<time>2025-10-14T20:39:04.375Z</time>
</trkpt>
<trkpt lat="31.7789400" lon="35.1080400">
<ele>659.609985</ele>
<time>2025-10-14T20:39:04.375Z</time>
</trkpt>
<trkpt lat="31.7789500" lon="35.1084300">
<ele>661.879944</ele>
<time>2025-10-14T20:39:04.375Z</time>
</trkpt>
<trkpt lat="31.7788900" lon="35.1089100">
<ele>663.170044</ele>
<time>2025-10-14T20:39:04.375Z</time>
</trkpt>
<trkpt lat="31.7789100" lon="35.1091500">
<ele>665.260010</ele>
<time>2025-10-14T20:39:04.375Z</time>
</trkpt>
<trkpt lat="31.7789600" lon="35.1093900">
<ele>667.890015</ele>
<time>2025-10-14T20:39:04.375Z</time>
</trkpt>
<trkpt lat="31.7790200" lon="35.1095200">
<ele>669.619995</ele>
<time>2025-10-14T20:39:04.375Z</time>
</trkpt>
<trkpt lat="31.7795900" lon="35.1102400">
<ele>676.599976</ele>
<time>2025-10-14T20:39:04.375Z</time>
</trkpt>
<trkpt lat="31.7796700" lon="35.1103800">
<ele>675.150024</ele>
<time>2025-10-14T20:39:04.376Z</time>
</trkpt>
<trkpt lat="31.7797300" lon="35.1106200">
<ele>672.820007</ele>
<time>2025-10-14T20:39:04.376Z</time>
</trkpt>
<trkpt lat="31.7796700" lon="35.1111500">
<ele>671.239990</ele>
<time>2025-10-14T20:39:04.376Z</time>
</trkpt>
<trkpt lat="31.7795500" lon="35.1118000">
<ele>674.039978</ele>
<time>2025-10-14T20:39:04.376Z</time>
</trkpt>
<trkpt lat="31.7795000" lon="35.1123400">
<ele>678.760010</ele>
<time>2025-10-14T20:39:04.376Z</time>
</trkpt>
<trkpt lat="31.7794300" lon="35.1127900">
<ele>682.619995</ele>
<time>2025-10-14T20:39:04.376Z</time>
</trkpt>
<trkpt lat="31.7794500" lon="35.1130400">
<ele>684.969971</ele>
<time>2025-10-14T20:39:04.376Z</time>
</trkpt>
<trkpt lat="31.7795500" lon="35.1133800">
<ele>687.340027</ele>
<time>2025-10-14T20:39:04.376Z</time>
</trkpt>
<trkpt lat="31.7801900" lon="35.1146900">
<ele>701.469971</ele>
<time>2025-10-14T20:39:04.376Z</time>
</trkpt>
<trkpt lat="31.7803300" lon="35.1149300">
<ele>700.909973</ele>
<time>2025-10-14T20:39:04.376Z</time>
</trkpt>
<trkpt lat="31.7804500" lon="35.1150800">
<ele>698.779968</ele>
<time>2025-10-14T20:39:04.376Z</time>
</trkpt>
<trkpt lat="31.7805500" lon="35.1151600">
<ele>697.140015</ele>
<time>2025-10-14T20:39:04.376Z</time>
</trkpt>
<trkpt lat="31.7807600" lon="35.1152700">
<ele>691.539978</ele>
<time>2025-10-14T20:39:04.376Z</time>
</trkpt>
<trkpt lat="31.7811600" lon="35.1152900">
<ele>681.150024</ele>
<time>2025-10-14T20:39:04.376Z</time>
</trkpt>
<trkpt lat="31.7821300" lon="35.1151900">
<ele>685.580017</ele>
<time>2025-10-14T20:39:04.376Z</time>
</trkpt>
<trkpt lat="31.7824500" lon="35.1150700">
<ele>696.589966</ele>
<time>2025-10-14T20:39:04.376Z</time>
</trkpt>
<trkpt lat="31.7826900" lon="35.1149300">
<ele>700.560059</ele>
<time>2025-10-14T20:39:04.376Z</time>
</trkpt>
<trkpt lat="31.7827900" lon="35.1148400">
<ele>702.119995</ele>
<time>2025-10-14T20:39:04.376Z</time>
</trkpt>
<trkpt lat="31.7829600" lon="35.1146100">
<ele>706.209961</ele>
<time>2025-10-14T20:39:04.376Z</time>
</trkpt>
<trkpt lat="31.7830000" lon="35.1145200">
<ele>708.600037</ele>
<time>2025-10-14T20:39:04.376Z</time>
</trkpt>
<trkpt lat="31.7834800" lon="35.1146500">
<ele>705.160034</ele>
<time>2025-10-14T20:39:04.377Z</time>
</trkpt>
<trkpt lat="31.7835600" lon="35.1147100">
<ele>704.179993</ele>
<time>2025-10-14T20:39:04.377Z</time>
</trkpt>
<trkpt lat="31.7836200" lon="35.1147900">
<ele>703.399963</ele>
<time>2025-10-14T20:39:04.377Z</time>
</trkpt>
<trkpt lat="31.7835900" lon="35.1149700">
<ele>701.259949</ele>
<time>2025-10-14T20:39:04.377Z</time>
</trkpt>
<trkpt lat="31.7834000" lon="35.1152300">
<ele>699.379944</ele>
<time>2025-10-14T20:39:04.377Z</time>
</trkpt>
<trkpt lat="31.7834000" lon="35.1153800">
<ele>699.010010</ele>
<time>2025-10-14T20:39:04.377Z</time>
</trkpt>
<trkpt lat="31.7835000" lon="35.1153900">
<ele>701.080017</ele>
<time>2025-10-14T20:39:04.377Z</time>
</trkpt>
<trkpt lat="31.7836300" lon="35.1153000">
<ele>703.350037</ele>
<time>2025-10-14T20:39:04.377Z</time>
</trkpt>
<trkpt lat="31.7840900" lon="35.1145900">
<ele>708.119995</ele>
<time>2025-10-14T20:39:04.377Z</time>
</trkpt>
<trkpt lat="31.7842600" lon="35.1147300">
<ele>708.630005</ele>
<time>2025-10-14T20:39:04.377Z</time>
</trkpt>
<trkpt lat="31.7834600" lon="35.1159200">
<ele>699.050049</ele>
<time>2025-10-14T20:39:04.377Z</time>
</trkpt>
<trkpt lat="31.7833700" lon="35.1159400">
<ele>695.929993</ele>
<time>2025-10-14T20:39:04.377Z</time>
</trkpt>
<trkpt lat="31.7833100" lon="35.1160100">
<ele>693.910034</ele>
<time>2025-10-14T20:39:04.377Z</time>
</trkpt>
<trkpt lat="31.7831900" lon="35.1162300">
<ele>692.479980</ele>
<time>2025-10-14T20:39:04.377Z</time>
</trkpt>
<trkpt lat="31.7829600" lon="35.1165500">
<ele>691.060059</ele>
<time>2025-10-14T20:39:04.377Z</time>
</trkpt>
<trkpt lat="31.7827200" lon="35.1170500">
<ele>692.510010</ele>
<time>2025-10-14T20:39:04.377Z</time>
</trkpt>
<trkpt lat="31.7822600" lon="35.1172300">
<ele>687.579956</ele>
<time>2025-10-14T20:39:04.377Z</time>
</trkpt>
<trkpt lat="31.7813400" lon="35.1175500">
<ele>681.040039</ele>
<time>2025-10-14T20:39:04.377Z</time>
</trkpt>
<trkpt lat="31.7812200" lon="35.1177700">
<ele>684.640015</ele>
<time>2025-10-14T20:39:04.378Z</time>
</trkpt>
<trkpt lat="31.7810300" lon="35.1180400">
<ele>686.730042</ele>
<time>2025-10-14T20:39:04.378Z</time>
</trkpt>
<trkpt lat="31.7807200" lon="35.1181600">
<ele>687.579956</ele>
<time>2025-10-14T20:39:04.378Z</time>
</trkpt>
<trkpt lat="31.7800300" lon="35.1182100">
<ele>680.769958</ele>
<time>2025-10-14T20:39:04.378Z</time>
</trkpt>
<trkpt lat="31.7792500" lon="35.1183000">
<ele>675.229980</ele>
<time>2025-10-14T20:39:04.378Z</time>
</trkpt>
<trkpt lat="31.7789400" lon="35.1185200">
<ele>676.619995</ele>
<time>2025-10-14T20:39:04.378Z</time>
</trkpt>
<trkpt lat="31.7787800" lon="35.1189100">
<ele>677.990051</ele>
<time>2025-10-14T20:39:04.378Z</time>
</trkpt>
<trkpt lat="31.7787500" lon="35.1195800">
<ele>679.510010</ele>
<time>2025-10-14T20:39:04.378Z</time>
</trkpt>
<trkpt lat="31.7788800" lon="35.1200800">
<ele>678.900024</ele>
<time>2025-10-14T20:39:04.378Z</time>
</trkpt>
<trkpt lat="31.7791700" lon="35.1205600">
<ele>682.019958</ele>
<time>2025-10-14T20:39:04.378Z</time>
</trkpt>
<trkpt lat="31.7795300" lon="35.1209000">
<ele>684.579956</ele>
<time>2025-10-14T20:39:04.378Z</time>
</trkpt>
<trkpt lat="31.7800100" lon="35.1213200">
<ele>676.779968</ele>
<time>2025-10-14T20:39:04.378Z</time>
</trkpt>
<trkpt lat="31.7800300" lon="35.1216000">
<ele>672.500000</ele>
<time>2025-10-14T20:39:04.378Z</time>
</trkpt>
<trkpt lat="31.7799700" lon="35.1220400">
<ele>669.520020</ele>
<time>2025-10-14T20:39:04.378Z</time>
</trkpt>
<trkpt lat="31.7800500" lon="35.1225200">
<ele>671.080017</ele>
<time>2025-10-14T20:39:04.378Z</time>
</trkpt>
<trkpt lat="31.7804200" lon="35.1229300">
<ele>672.119995</ele>
<time>2025-10-14T20:39:04.378Z</time>
</trkpt>
<trkpt lat="31.7809300" lon="35.1232600">
<ele>670.250000</ele>
<time>2025-10-14T20:39:04.378Z</time>
</trkpt>
<trkpt lat="31.7814100" lon="35.1233500">
<ele>671.459961</ele>
<time>2025-10-14T20:39:04.378Z</time>
</trkpt>
<trkpt lat="31.7819700" lon="35.1234200">
<ele>675.109985</ele>
<time>2025-10-14T20:39:04.378Z</time>
</trkpt>
<trkpt lat="31.7820100" lon="35.1236100">
<ele>671.910034</ele>
<time>2025-10-14T20:39:04.379Z</time>
</trkpt>
<trkpt lat="31.7820000" lon="35.1239400">
<ele>672.619995</ele>
<time>2025-10-14T20:39:04.379Z</time>
</trkpt>
<trkpt lat="31.7819300" lon="35.1241600">
<ele>677.270020</ele>
<time>2025-10-14T20:39:04.379Z</time>
</trkpt>
<trkpt lat="31.7823400" lon="35.1238100">
<ele>682.289978</ele>
<time>2025-10-14T20:39:04.379Z</time>
</trkpt>
<trkpt lat="31.7826300" lon="35.1233400">
<ele>685.350037</ele>
<time>2025-10-14T20:39:04.379Z</time>
</trkpt>
<trkpt lat="31.7827500" lon="35.1231900">
<ele>687.419983</ele>
<time>2025-10-14T20:39:04.379Z</time>
</trkpt>
<trkpt lat="31.7829600" lon="35.1230700">
<ele>691.070007</ele>
<time>2025-10-14T20:39:04.379Z</time>
</trkpt>
<trkpt lat="31.7829900" lon="35.1229900">
<ele>691.519958</ele>
<time>2025-10-14T20:39:04.379Z</time>
</trkpt>
<trkpt lat="31.7829800" lon="35.1228600">
<ele>691.239990</ele>
<time>2025-10-14T20:39:04.379Z</time>
</trkpt>
<trkpt lat="31.7829400" lon="35.1227600">
<ele>690.969971</ele>
<time>2025-10-14T20:39:04.379Z</time>
</trkpt>
<trkpt lat="31.7829900" lon="35.1227000">
<ele>692.199951</ele>
<time>2025-10-14T20:39:04.379Z</time>
</trkpt>
<trkpt lat="31.7830600" lon="35.1226900">
<ele>692.979980</ele>
<time>2025-10-14T20:39:04.379Z</time>
</trkpt>
<trkpt lat="31.7832900" lon="35.1228700">
<ele>695.420044</ele>
<time>2025-10-14T20:39:04.379Z</time>
</trkpt>
<trkpt lat="31.7826900" lon="35.1240000">
<ele>693.710022</ele>
<time>2025-10-14T20:39:04.379Z</time>
</trkpt>
<trkpt lat="31.7820000" lon="35.1245700">
<ele>689.039978</ele>
<time>2025-10-14T20:39:04.379Z</time>
</trkpt>
<trkpt lat="31.7815800" lon="35.1248800">
<ele>688.270020</ele>
<time>2025-10-14T20:39:04.379Z</time>
</trkpt>
<trkpt lat="31.7815700" lon="35.1254800">
<ele>694.640015</ele>
<time>2025-10-14T20:39:04.380Z</time>
</trkpt>
<trkpt lat="31.7815200" lon="35.1259800">
<ele>694.449951</ele>
<time>2025-10-14T20:39:04.380Z</time>
</trkpt>
<trkpt lat="31.7815800" lon="35.1269100">
<ele>694.020020</ele>
<time>2025-10-14T20:39:04.380Z</time>
</trkpt>
<trkpt lat="31.7817000" lon="35.1272100">
<ele>694.380005</ele>
<time>2025-10-14T20:39:04.380Z</time>
</trkpt>
<trkpt lat="31.7818000" lon="35.1278900">
<ele>686.489990</ele>
<time>2025-10-14T20:39:04.380Z</time>
</trkpt>
<trkpt lat="31.7820900" lon="35.1282800">
<ele>680.580017</ele>
<time>2025-10-14T20:39:04.380Z</time>
</trkpt>
<trkpt lat="31.7824500" lon="35.1283800">
<ele>681.059998</ele>
<time>2025-10-14T20:39:04.380Z</time>
</trkpt>
<trkpt lat="31.7835800" lon="35.1286000">
<ele>686.719971</ele>
<time>2025-10-14T20:39:04.380Z</time>
</trkpt>
<trkpt lat="31.7838300" lon="35.1286700">
<ele>690.260010</ele>
<time>2025-10-14T20:39:04.380Z</time>
</trkpt>
<trkpt lat="31.7838800" lon="35.1288600">
<ele>689.119995</ele>
<time>2025-10-14T20:39:04.380Z</time>
</trkpt>
<trkpt lat="31.7838200" lon="35.1291600">
<ele>686.050049</ele>
<time>2025-10-14T20:39:04.380Z</time>
</trkpt>
<trkpt lat="31.7837200" lon="35.1293700">
<ele>683.869995</ele>
<time>2025-10-14T20:39:04.380Z</time>
</trkpt>
<trkpt lat="31.7834200" lon="35.1296600">
<ele>682.190002</ele>
<time>2025-10-14T20:39:04.380Z</time>
</trkpt>
<trkpt lat="31.7832700" lon="35.1304000">
<ele>684.760010</ele>
<time>2025-10-14T20:39:04.380Z</time>
</trkpt>
<trkpt lat="31.7831800" lon="35.1304200">
<ele>682.959961</ele>
<time>2025-10-14T20:39:04.380Z</time>
</trkpt>
<trkpt lat="31.7830000" lon="35.1305000">
<ele>679.079956</ele>
<time>2025-10-14T20:39:04.380Z</time>
</trkpt>
<trkpt lat="31.7828700" lon="35.1306400">
<ele>675.850037</ele>
<time>2025-10-14T20:39:04.380Z</time>
</trkpt>
<trkpt lat="31.7828100" lon="35.1307300">
<ele>673.359985</ele>
<time>2025-10-14T20:39:04.380Z</time>
</trkpt>
<trkpt lat="31.7826300" lon="35.1309400">
<ele>667.039978</ele>
<time>2025-10-14T20:39:04.380Z</time>
</trkpt>
<trkpt lat="31.7825900" lon="35.1309600">
<ele>666.029968</ele>
<time>2025-10-14T20:39:04.381Z</time>
</trkpt>
<trkpt lat="31.7825600" lon="35.1310100">
<ele>665.020020</ele>
<time>2025-10-14T20:39:04.381Z</time>
</trkpt>
<trkpt lat="31.7825800" lon="35.1314300">
<ele>666.239990</ele>
<time>2025-10-14T20:39:04.381Z</time>
</trkpt>
<trkpt lat="31.7825600" lon="35.1316300">
<ele>667.390015</ele>
<time>2025-10-14T20:39:04.381Z</time>
</trkpt>
<trkpt lat="31.7825000" lon="35.1316600">
<ele>665.930054</ele>
<time>2025-10-14T20:39:04.381Z</time>
</trkpt>
<trkpt lat="31.7824400" lon="35.1316600">
<ele>665.919983</ele>
<time>2025-10-14T20:39:04.381Z</time>
</trkpt>
<trkpt lat="31.7824000" lon="35.1316400">
<ele>665.639954</ele>
<time>2025-10-14T20:39:04.381Z</time>
</trkpt>
<trkpt lat="31.7823700" lon="35.1316800">
<ele>666.040039</ele>
<time>2025-10-14T20:39:04.381Z</time>
</trkpt>
<trkpt lat="31.7823000" lon="35.1316800">
<ele>666.090027</ele>
<time>2025-10-14T20:39:04.381Z</time>
</trkpt>
<trkpt lat="31.7820600" lon="35.1315100">
<ele>666.610046</ele>
<time>2025-10-14T20:39:04.381Z</time>
</trkpt>
<trkpt lat="31.7820300" lon="35.1314700">
<ele>666.320007</ele>
<time>2025-10-14T20:39:04.381Z</time>
</trkpt>
<trkpt lat="31.7819300" lon="35.1314400">
<ele>667.409973</ele>
<time>2025-10-14T20:39:04.381Z</time>
</trkpt>
<trkpt lat="31.7818900" lon="35.1314000">
<ele>666.690002</ele>
<time>2025-10-14T20:39:04.381Z</time>
</trkpt>
<trkpt lat="31.7818400" lon="35.1313900">
<ele>666.779968</ele>
<time>2025-10-14T20:39:04.381Z</time>
</trkpt>
<trkpt lat="31.7817400" lon="35.1312700">
<ele>664.070007</ele>
<time>2025-10-14T20:39:04.381Z</time>
</trkpt>
<trkpt lat="31.7816300" lon="35.1312400">
<ele>663.850037</ele>
<time>2025-10-14T20:39:04.381Z</time>
</trkpt>
<trkpt lat="31.7814400" lon="35.1310800">
<ele>663.079956</ele>
<time>2025-10-14T20:39:04.382Z</time>
</trkpt>
<trkpt lat="31.7812000" lon="35.1309200">
<ele>661.279968</ele>
<time>2025-10-14T20:39:04.382Z</time>
</trkpt>
<trkpt lat="31.7810700" lon="35.1309000">
<ele>661.619995</ele>
<time>2025-10-14T20:39:04.382Z</time>
</trkpt>
<trkpt lat="31.7807800" lon="35.1309200">
<ele>663.700012</ele>
<time>2025-10-14T20:39:04.382Z</time>
</trkpt>
<trkpt lat="31.7806900" lon="35.1308700">
<ele>662.880005</ele>
<time>2025-10-14T20:39:04.382Z</time>
</trkpt>
<trkpt lat="31.7805100" lon="35.1308800">
<ele>663.539978</ele>
<time>2025-10-14T20:39:04.382Z</time>
</trkpt>
<trkpt lat="31.7803300" lon="35.1309200">
<ele>663.190002</ele>
<time>2025-10-14T20:39:04.382Z</time>
</trkpt>
<trkpt lat="31.7801700" lon="35.1308700">
<ele>662.850037</ele>
<time>2025-10-14T20:39:04.382Z</time>
</trkpt>
<trkpt lat="31.7800800" lon="35.1307800">
<ele>661.739990</ele>
<time>2025-10-14T20:39:04.382Z</time>
</trkpt>
<trkpt lat="31.7800300" lon="35.1306600">
<ele>659.239990</ele>
<time>2025-10-14T20:39:04.382Z</time>
</trkpt>
<trkpt lat="31.7798000" lon="35.1303500">
<ele>662.330017</ele>
<time>2025-10-14T20:39:04.382Z</time>
</trkpt>
<trkpt lat="31.7795700" lon="35.1299100">
<ele>662.940002</ele>
<time>2025-10-14T20:39:04.382Z</time>
</trkpt>
<trkpt lat="31.7794000" lon="35.1298200">
<ele>666.469971</ele>
<time>2025-10-14T20:39:04.382Z</time>
</trkpt>
<trkpt lat="31.7792800" lon="35.1297300">
<ele>668.239990</ele>
<time>2025-10-14T20:39:04.382Z</time>
</trkpt>
<trkpt lat="31.7791200" lon="35.1295300">
<ele>666.909973</ele>
<time>2025-10-14T20:39:04.382Z</time>
</trkpt>
<trkpt lat="31.7791100" lon="35.1294800">
<ele>665.919983</ele>
<time>2025-10-14T20:39:04.383Z</time>
</trkpt>
<trkpt lat="31.7790600" lon="35.1294100">
<ele>664.439941</ele>
<time>2025-10-14T20:39:04.383Z</time>
</trkpt>
<trkpt lat="31.7789700" lon="35.1293500">
<ele>663.229980</ele>
<time>2025-10-14T20:39:04.383Z</time>
</trkpt>
<trkpt lat="31.7787800" lon="35.1293100">
<ele>665.340027</ele>
<time>2025-10-14T20:39:04.383Z</time>
</trkpt>
<trkpt lat="31.7780000" lon="35.1293200">
<ele>673.660034</ele>
<time>2025-10-14T20:39:04.383Z</time>
</trkpt>
<trkpt lat="31.7779400" lon="35.1293000">
<ele>673.680054</ele>
<time>2025-10-14T20:39:04.383Z</time>
</trkpt>
<trkpt lat="31.7779000" lon="35.1292600">
<ele>673.519958</ele>
<time>2025-10-14T20:39:04.383Z</time>
</trkpt>
<trkpt lat="31.7779000" lon="35.1291900">
<ele>673.129944</ele>
<time>2025-10-14T20:39:04.383Z</time>
</trkpt>
<trkpt lat="31.7779300" lon="35.1290800">
<ele>672.690002</ele>
<time>2025-10-14T20:39:04.383Z</time>
</trkpt>
<trkpt lat="31.7779000" lon="35.1290500">
<ele>672.579956</ele>
<time>2025-10-14T20:39:04.383Z</time>
</trkpt>
<trkpt lat="31.7778000" lon="35.1291400">
<ele>672.900024</ele>
<time>2025-10-14T20:39:04.383Z</time>
</trkpt>
<trkpt lat="31.7777500" lon="35.1291500">
<ele>672.850037</ele>
<time>2025-10-14T20:39:04.383Z</time>
</trkpt>
<trkpt lat="31.7777700" lon="35.1289600">
<ele>672.250000</ele>
<time>2025-10-14T20:39:04.383Z</time>
</trkpt>
<trkpt lat="31.7777200" lon="35.1288600">
<ele>672.079956</ele>
<time>2025-10-14T20:39:04.383Z</time>
</trkpt>
<trkpt lat="31.7776500" lon="35.1288000">
<ele>672.170044</ele>
<time>2025-10-14T20:39:04.383Z</time>
</trkpt>
<trkpt lat="31.7775700" lon="35.1287700">
<ele>672.109985</ele>
<time>2025-10-14T20:39:04.383Z</time>
</trkpt>
<trkpt lat="31.7775800" lon="35.1286900">
<ele>672.209961</ele>
<time>2025-10-14T20:39:04.383Z</time>
</trkpt>
<trkpt lat="31.7775400" lon="35.1285600">
<ele>671.960022</ele>
<time>2025-10-14T20:39:04.383Z</time>
</trkpt>
<trkpt lat="31.7777700" lon="35.1280400">
<ele>670.979980</ele>
<time>2025-10-14T20:39:04.383Z</time>
</trkpt>
<trkpt lat="31.7778300" lon="35.1275900">
<ele>670.179993</ele>
<time>2025-10-14T20:39:04.384Z</time>
</trkpt>
<trkpt lat="31.7777300" lon="35.1272200">
<ele>672.549988</ele>
<time>2025-10-14T20:39:04.384Z</time>
</trkpt>
<trkpt lat="31.7773500" lon="35.1267700">
<ele>683.409973</ele>
<time>2025-10-14T20:39:04.384Z</time>
</trkpt>
<trkpt lat="31.7767600" lon="35.1264200">
<ele>696.269958</ele>
<time>2025-10-14T20:39:04.384Z</time>
</trkpt>
<trkpt lat="31.7757200" lon="35.1258300">
<ele>691.150024</ele>
<time>2025-10-14T20:39:04.384Z</time>
</trkpt>
<trkpt lat="31.7740000" lon="35.1247600">
<ele>706.579956</ele>
<time>2025-10-14T20:39:04.384Z</time>
</trkpt>
<trkpt lat="31.7745800" lon="35.1250500">
<ele>701.699951</ele>
<time>2025-10-14T20:39:04.384Z</time>
</trkpt>
<trkpt lat="31.7745600" lon="35.1250900">
<ele>701.099976</ele>
<time>2025-10-14T20:39:04.384Z</time>
</trkpt>
<trkpt lat="31.7743100" lon="35.1249300">
<ele>703.770020</ele>
<time>2025-10-14T20:39:04.384Z</time>
</trkpt>
</trkseg>
</trk>
</gpx>
